Latitude: N 50° 09' 49" Longitude: W 05° 11' 53" Elevation: 168m ASL

There are 11 visitors online

Adverts

<- Previous Day | Today | Next Day ->

All Data for 09 October 2019

Time
A - D
Temp
A - D
Dew Point
A - D
Humidity
A - D
Pressure
A - D
Wind
A - D
Wind Dir Gust
A - D
Rain Rate
A - D
Rain Total
00:00 10.3 7.4 82 1009.2 4.5 NW 7.6 0.0 0.0
00:01 10.2 7.3 82 1009.3 6.0 SW 7.6 0.0 0.0
00:02 10.2 7.3 82 1009.2 6.9 S 7.6 0.0 0.0
00:03 10.2 7.4 83 1009.3 5.4 SW 7.6 0.0 0.0
00:04 10.2 7.4 83 1009.2 5.4 SW 7.6 0.0 0.0
00:05 10.2 7.4 83 1009.0 6.9 WSW 7.6 0.0 0.0
00:06 10.2 7.4 83 1009.1 6.0 SW 7.6 0.0 0.0
00:07 10.2 7.4 83 1009.0 6.0 S 7.6 0.0 0.0
00:08 10.2 7.4 83 1009.0 6.0 S 7.6 0.0 0.0
00:09 10.2 7.4 83 1009.0 5.4 SW 7.6 0.0 0.0
00:10 10.2 7.4 83 1009.0 6.0 WNW 7.6 0.0 0.0
00:11 10.2 7.4 83 1009.1 4.5 SW 7.6 0.0 0.0
00:12 10.2 7.4 83 1009.0 6.0 W 7.6 0.0 0.0
00:13 10.2 7.4 83 1009.1 3.8 W 7.6 0.0 0.0
00:14 10.2 7.4 83 1009.0 5.4 SW 7.6 0.0 0.0
00:15 10.2 7.4 83 1009.1 5.4 SW 7.6 0.0 0.0
00:16 10.2 7.4 83 1009.0 5.4 SW 7.6 0.0 0.0
00:17 10.2 7.4 83 1009.0 6.0 WSW 7.6 0.0 0.0
00:18 10.2 7.4 83 1009.0 6.0 SW 7.6 0.0 0.0
00:19 10.2 7.4 83 1008.9 5.4 S 6.0 0.0 0.0
00:20 10.2 7.4 83 1009.0 5.4 SW 6.0 0.0 0.0
00:21 10.2 7.4 83 1009.0 8.3 SW 8.3 0.0 0.0
00:22 10.2 7.4 83 1009.1 7.6 S 8.3 0.0 0.0
00:23 10.2 7.4 83 1008.8 5.4 SW 8.3 0.0 0.0
00:24 10.2 7.4 83 1009.1 8.3 SSW 10.7 0.0 0.0
00:25 10.3 7.5 83 1008.9 6.9 SSW 10.7 0.0 0.0
00:26 10.3 7.5 83 1009.0 5.4 SW 10.7 0.0 0.0
00:27 10.3 7.5 83 1009.0 7.6 S 10.7 0.0 0.0
00:28 10.3 7.5 83 1009.0 8.3 SW 10.7 0.0 0.0
00:29 10.3 7.7 84 1009.1 8.3 SW 10.7 0.0 0.0
00:30 10.3 7.5 83 1009.0 6.0 W 10.7 0.0 0.0
00:31 10.4 7.8 84 1009.0 5.4 SW 10.7 0.0 0.0
00:32 10.4 7.8 84 1008.9 7.6 SW 10.7 0.0 0.0
00:33 10.4 7.8 84 1009.1 9.2 SW 9.2 0.0 0.0
00:34 10.4 7.8 84 1009.0 9.8 SW 9.8 0.0 0.0
00:35 10.4 7.8 84 1009.0 8.3 SW 9.8 0.0 0.0
00:36 10.4 7.8 84 1008.9 8.3 SW 9.8 0.0 0.0
00:37 10.4 7.8 84 1009.1 9.2 S 9.8 0.0 0.0
00:38 10.5 7.9 84 1008.9 9.2 SW 9.8 0.0 0.0
00:39 10.5 7.9 84 1009.0 8.3 SW 9.8 0.0 0.0
00:40 10.5 7.9 84 1009.0 7.6 SW 9.8 0.0 0.0
00:41 10.5 7.9 84 1008.9 9.8 SW 9.8 0.0 0.0
00:42 10.5 7.9 84 1008.9 8.3 S 9.8 0.0 0.0
00:43 10.5 7.9 84 1008.9 8.3 SW 9.8 0.0 0.0
00:44 10.6 8.0 84 1008.7 6.9 SW 9.8 0.0 0.0
00:45 10.6 8.0 84 1008.8 6.0 SW 9.8 0.0 0.0
00:46 10.6 8.0 84 1008.8 8.3 W 9.8 0.0 0.0
00:47 10.6 8.0 84 1008.8 8.3 SW 9.8 0.0 0.0
00:48 10.6 8.0 84 1008.7 10.7 S 10.7 0.0 0.0
00:49 10.6 8.0 84 1008.8 9.2 SW 10.7 0.0 0.0
00:50 10.6 8.0 84 1008.7 9.8 SW 10.7 0.0 0.0
00:51 10.6 7.8 83 1008.8 9.2 S 10.7 0.0 0.0
00:52 10.6 7.8 83 1008.8 9.8 SW 10.7 0.0 0.0
00:53 10.6 7.8 83 1008.6 9.8 SW 10.7 0.0 0.0
00:54 10.6 8.0 84 1008.7 8.3 SW 10.7 0.0 0.0
00:55 10.6 8.0 84 1008.7 6.9 SW 10.7 0.0 0.0
00:56 10.7 8.1 84 1008.6 11.4 SW 11.4 0.0 0.0
00:57 10.6 7.8 83 1008.6 10.7 SW 11.4 0.0 0.0
00:58 10.7 7.9 83 1008.7 10.7 S 11.4 0.0 0.0
00:59 10.7 7.9 83 1008.6 9.2 WNW 11.4 0.0 0.0
01:00 10.7 7.9 83 1008.6 8.3 SW 11.4 0.0 0.0
01:01 10.7 7.9 83 1008.7 11.4 SW 11.4 0.0 0.0
01:02 10.7 7.9 83 1008.7 10.7 SW 11.4 0.0 0.0
01:03 10.7 7.9 83 1008.8 13.0 SW 13.0 0.0 0.0
01:04 10.7 7.9 83 1008.8 9.8 SW 13.0 0.0 0.0
01:05 10.8 8.0 83 1008.9 11.4 S 13.0 0.0 0.0
01:06 10.8 8.0 83 1008.6 15.9 SW 15.9 0.0 0.0
01:07 10.8 8.0 83 1008.7 25.1 S 25.1 0.0 0.0
01:08 10.8 8.0 83 1008.6 14.5 SW 25.1 0.8 0.1
01:09 10.9 8.1 83 1008.6 15.2 SE 25.1 1.5 0.1
01:10 10.9 8.1 83 1008.6 12.1 NW 25.1 2.3 0.2
01:11 10.9 8.1 83 1008.5 13.6 W 25.1 2.3 0.2
01:12 10.8 8.0 83 1008.5 8.3 S 25.1 2.3 0.2
01:13 10.8 8.0 83 1008.6 13.6 WNW 25.1 2.3 0.3
01:14 10.8 8.0 83 1008.6 17.4 SW 25.1 1.5 0.3
01:15 10.8 8.0 83 1008.6 16.8 SW 25.1 0.8 0.3
01:16 10.7 7.9 83 1008.5 9.2 W 25.1 0.8 0.3
01:17 10.7 7.9 83 1008.6 13.6 S 25.1 0.8 0.3
01:18 10.7 7.9 83 1008.5 13.6 SW 17.4 0.0 0.3
01:19 10.7 7.9 83 1008.5 13.6 SW 17.4 0.0 0.3
01:20 10.6 7.8 83 1008.5 9.2 S 17.4 0.0 0.3
01:21 10.6 7.8 83 1008.4 12.1 WNW 17.4 0.0 0.3
01:22 10.6 7.8 83 1008.5 9.8 W 17.4 0.0 0.3
01:23 10.5 7.7 83 1008.3 10.7 SW 17.4 0.0 0.3
01:24 10.5 7.7 83 1008.4 11.4 SW 17.4 0.0 0.3
01:25 10.5 7.7 83 1008.5 10.7 SW 16.8 0.0 0.3
01:26 10.5 7.6 82 1008.4 9.8 W 13.6 0.0 0.3
01:27 10.5 7.6 82 1008.4 9.2 S 13.6 0.0 0.3
01:28 10.4 7.5 82 1008.4 8.3 SW 13.6 0.0 0.3
01:29 10.4 7.5 82 1008.3 8.3 WSW 13.6 0.0 0.3
01:30 10.4 7.5 82 1008.5 7.6 SW 12.1 0.0 0.3
01:31 10.4 7.5 82 1008.3 8.3 S 11.4 0.0 0.3
01:32 10.4 7.5 82 1008.5 13.0 S 13.0 0.0 0.3
01:33 10.4 7.5 82 1008.4 6.9 NW 13.0 0.0 0.3
01:34 10.4 7.6 83 1008.4 6.9 WSW 13.0 0.0 0.3
01:35 10.3 7.4 82 1008.3 8.3 S 13.0 0.0 0.3
01:36 10.3 7.4 82 1008.4 9.8 S 13.0 0.0 0.3
01:37 10.3 7.4 82 1008.5 9.8 NW 13.0 0.0 0.3
01:38 10.3 7.5 83 1008.5 9.8 SW 13.0 0.0 0.3
01:39 10.3 7.5 83 1008.4 8.3 S 13.0 0.0 0.3
01:40 10.3 7.5 83 1008.4 8.3 SW 13.0 0.0 0.3
01:41 10.3 7.4 82 1008.3 8.3 SSW 13.0 0.0 0.3
01:42 10.3 7.5 83 1008.4 8.3 SW 13.0 0.0 0.3
01:43 10.3 7.5 83 1008.5 8.3 SW 10.7 0.0 0.3
01:44 10.3 7.5 83 1008.3 9.2 SW 10.7 0.0 0.3
01:45 10.3 7.5 83 1008.4 9.2 SW 10.7 0.0 0.3
01:46 10.3 7.5 83 1008.4 8.3 SE 10.7 0.0 0.3
01:47 10.3 7.5 83 1008.2 9.2 SW 10.7 0.0 0.3
01:48 10.3 7.5 83 1008.4 9.8 SW 10.7 0.0 0.3
01:49 10.4 7.6 83 1008.5 6.9 W 10.7 0.0 0.3
01:50 10.4 7.6 83 1008.2 10.7 SW 10.7 0.0 0.3
01:51 10.4 7.6 83 1008.3 8.3 SW 10.7 0.0 0.3
01:52 10.4 7.6 83 1008.2 7.6 SW 10.7 0.0 0.3
01:53 10.4 7.6 83 1008.3 7.6 WSW 10.7 0.0 0.3
01:54 10.4 7.6 83 1008.3 8.3 WSW 10.7 0.0 0.3
01:55 10.4 7.6 83 1008.2 8.3 SW 10.7 0.0 0.3
01:56 10.5 7.7 83 1008.3 6.9 W 10.7 0.0 0.3
01:57 10.5 7.7 83 1008.3 8.3 S 10.7 0.0 0.3
01:58 10.5 7.9 84 1008.3 9.2 SW 10.7 0.0 0.3
01:59 10.5 7.7 83 1008.3 9.2 S 10.7 0.0 0.3
02:00 10.5 7.9 84 1008.2 9.8 SW 10.7 0.0 0.3
02:01 10.5 7.9 84 1008.4 6.9 S 9.8 0.0 0.3
02:02 10.5 7.9 84 1008.2 8.3 SW 9.8 0.0 0.3
02:03 10.6 8.0 84 1008.4 13.0 SW 13.0 0.0 0.3
02:04 10.6 8.0 84 1008.4 8.3 NW 13.0 0.0 0.3
02:05 10.6 8.0 84 1008.5 7.6 SW 13.0 0.0 0.3
02:06 10.6 8.0 84 1008.4 9.2 SW 13.0 0.0 0.3
02:07 10.7 8.1 84 1008.3 11.4 SW 13.0 0.0 0.3
02:08 10.7 8.1 84 1008.4 11.4 WNW 13.0 0.0 0.3
02:10 10.7 8.1 84 1008.4 7.6 SW 13.0 0.0 0.3
02:11 10.8 8.2 84 1008.3 6.0 SW 13.0 0.0 0.3
02:12 10.8 8.2 84 1008.2 6.9 SW 13.0 0.0 0.3
02:13 10.8 8.2 84 1008.1 6.9 SW 11.4 0.0 0.3
02:14 10.8 8.2 84 1008.2 6.9 W 11.4 0.0 0.3
02:15 10.8 8.2 84 1008.3 5.4 SW 11.4 0.0 0.3
02:16 10.8 8.2 84 1008.1 6.9 W 11.4 0.0 0.3
02:17 10.8 8.2 84 1008.1 6.0 SW 11.4 0.0 0.3
02:18 10.8 8.2 84 1008.3 6.9 SW 8.3 0.0 0.3
02:19 10.8 8.2 84 1008.2 6.9 SW 7.6 0.0 0.3
02:20 10.8 8.2 84 1008.2 5.4 SSE 7.6 0.0 0.3
02:21 10.8 8.2 84 1008.1 5.4 S 6.9 0.0 0.3
02:22 10.8 8.2 84 1008.1 6.9 SW 6.9 0.0 0.3
02:23 10.8 8.2 84 1008.1 6.9 SSW 9.2 0.0 0.3
02:24 10.8 8.2 84 1008.2 6.0 SW 9.2 0.0 0.3
02:25 10.8 8.2 84 1008.1 7.6 S 9.2 0.0 0.3
02:26 10.8 8.2 84 1008.0 7.6 S 9.2 0.0 0.3
02:27 10.8 8.2 84 1008.1 7.6 SW 9.2 0.0 0.3
02:28 10.8 8.2 84 1008.0 6.9 SSW 9.2 0.0 0.3
02:30 10.8 8.2 84 1008.0 8.3 W 9.2 0.0 0.3
02:31 10.8 8.2 84 1007.9 6.9 WSW 9.2 0.0 0.3
02:32 10.8 8.2 84 1008.0 8.3 S 9.2 0.0 0.3
02:33 10.8 8.2 84 1007.9 11.4 W 11.4 0.0 0.3
02:34 10.8 8.4 85 1007.9 7.6 SW 11.4 0.0 0.3
02:35 10.8 8.2 84 1007.8 7.6 SW 11.4 0.0 0.3
02:36 10.9 8.3 84 1008.2 10.7 SW 11.4 0.0 0.3
02:37 10.9 8.3 84 1008.1 9.8 S 11.4 0.8 0.4
02:38 10.9 8.3 84 1008.1 9.8 S 11.4 1.5 0.4
02:39 10.9 8.3 84 1008.1 18.3 SW 18.3 3.8 0.8
02:40 10.9 8.3 84 1008.2 15.2 W 18.3 6.0 0.8
02:41 10.9 8.3 84 1008.2 12.1 SW 18.3 6.0 0.8
02:42 10.9 8.3 84 1008.2 9.8 NW 18.3 6.0 0.8
02:43 10.9 8.3 84 1008.2 12.1 N 18.3 6.0 0.9
02:44 10.8 8.2 84 1008.0 9.8 WSW 18.3 4.5 1.1
02:45 10.8 8.2 84 1008.1 10.7 SW 18.3 4.5 1.1
02:46 10.8 8.2 84 1008.1 12.1 W 18.3 4.5 1.1
02:47 10.8 8.2 84 1008.2 12.1 SW 18.3 3.8 1.1
02:49 10.7 8.1 84 1008.4 9.8 SW 15.2 3.0 1.3
02:50 10.7 8.1 84 1008.3 8.3 SW 13.6 1.5 1.4
02:51 10.7 8.1 84 1008.2 12.1 SW 13.6 3.0 1.4
02:52 10.7 8.1 84 1008.2 12.1 W 13.6 3.8 1.4
02:53 10.6 8.0 84 1008.4 9.2 SW 13.6 3.8 1.4
02:54 10.6 8.0 84 1008.2 8.3 SW 13.6 3.0 1.4
02:55 10.6 8.0 84 1008.2 8.3 WSW 13.6 2.3 1.5
02:56 10.6 8.0 84 1008.2 6.9 S 13.6 1.5 1.5
02:57 10.6 8.0 84 1008.2 6.9 S 12.1 0.8 1.5
02:58 10.6 8.0 84 1008.2 6.9 SW 12.1 0.8 1.5
02:59 10.5 7.9 84 1008.3 8.3 S 12.1 1.5 1.6
03:00 10.5 8.1 85 1008.3 7.6 SW 12.1 2.3 1.6
03:01 10.5 8.1 85 1008.2 7.6 SW 12.1 1.5 1.6
03:02 10.5 8.1 85 1008.2 9.8 SW 12.1 1.5 1.6
03:03 10.5 8.1 85 1008.3 7.6 SW 12.1 2.3 1.7
03:04 10.5 8.1 85 1008.3 8.3 SW 9.8 1.5 1.7
03:05 10.4 8.0 85 1008.2 6.9 SW 9.8 0.8 1.7
03:06 10.4 8.0 85 1008.1 6.0 SW 9.8 0.8 1.7
03:08 10.4 8.0 85 1008.0 8.3 SW 9.8 0.0 1.7
03:09 10.4 8.0 85 1008.0 7.6 SSW 9.8 0.0 1.7
03:10 10.4 8.0 85 1008.0 6.9 S 9.8 0.0 1.7
03:11 10.3 7.9 85 1007.9 5.4 SW 9.8 0.0 1.7
03:12 10.3 7.9 85 1007.9 8.3 WNW 9.2 0.0 1.7
03:13 10.3 7.9 85 1008.0 6.9 SW 9.2 0.0 1.7
03:14 10.3 7.9 85 1008.0 5.4 SW 9.2 0.0 1.7
03:15 10.3 7.9 85 1008.0 6.0 S 9.2 0.0 1.7
03:16 10.3 7.9 85 1008.0 4.5 SW 9.2 0.0 1.7
03:17 10.3 7.9 85 1008.0 4.5 N 9.2 0.0 1.7
03:18 10.3 7.9 85 1008.0 8.3 SSW 8.3 0.0 1.7
03:19 10.3 7.9 85 1007.8 6.0 SW 8.3 0.0 1.7
03:20 10.3 7.9 85 1007.7 6.9 SW 8.3 0.0 1.7
03:21 10.3 7.9 85 1007.7 6.0 SW 8.3 0.0 1.7
03:22 10.3 7.9 85 1007.8 7.6 SW 8.3 0.0 1.7
03:23 10.3 8.1 86 1007.8 7.6 SW 8.3 0.0 1.7
03:24 10.3 8.1 86 1007.6 6.0 W 8.3 0.0 1.7
03:25 10.3 8.1 86 1007.6 6.0 W 8.3 0.0 1.7
03:27 10.2 8.0 86 1007.6 9.2 SW 9.2 0.0 1.7
03:28 10.3 8.1 86 1007.7 6.9 SW 9.2 0.0 1.7
03:29 10.3 8.1 86 1007.6 8.3 SW 9.2 0.0 1.7
03:30 10.3 8.1 86 1007.6 7.6 SW 9.2 0.0 1.7
03:31 10.2 8.0 86 1007.6 8.3 SW 9.2 0.0 1.7
03:32 10.2 8.0 86 1007.7 7.6 SW 9.2 0.0 1.7
03:33 10.2 8.0 86 1007.6 6.0 SW 9.2 0.0 1.7
03:34 10.2 8.0 86 1007.6 6.9 S 9.2 0.0 1.7
03:35 10.2 8.0 86 1007.6 6.0 SW 9.2 0.0 1.7
03:36 10.2 8.0 86 1007.6 7.6 SW 9.2 0.0 1.7
03:37 10.2 8.0 86 1007.6 7.6 SW 9.2 0.0 1.7
03:38 10.2 8.0 86 1007.6 6.9 SW 8.3 0.0 1.7
03:39 10.2 8.0 86 1007.7 6.0 SW 8.3 0.0 1.7
03:40 10.2 8.0 86 1007.6 4.5 NW 8.3 0.0 1.7
03:41 10.2 8.0 86 1007.6 6.9 SW 8.3 0.0 1.7
03:42 10.2 8.0 86 1007.6 9.2 SW 9.2 0.0 1.7
03:43 10.1 7.9 86 1007.7 6.9 W 9.2 0.0 1.7
03:44 10.1 7.9 86 1007.5 9.2 SW 9.2 0.0 1.7
03:45 10.1 7.9 86 1007.7 9.8 SW 9.8 0.0 1.7
03:46 10.1 7.9 86 1007.7 8.3 SW 9.8 0.0 1.7
03:47 10.1 7.9 86 1007.5 6.9 W 9.8 0.0 1.7
03:49 10.1 7.9 86 1007.5 6.0 SW 9.8 0.0 1.7
03:50 10.1 7.9 86 1007.5 6.0 WSW 9.8 0.0 1.7
03:51 10.1 7.9 86 1007.4 7.6 W 9.8 0.0 1.7
03:52 10.1 7.9 86 1007.5 8.3 WSW 9.8 0.0 1.7
03:53 10.1 7.9 86 1007.5 7.6 SW 9.8 0.0 1.7
03:54 10.1 7.9 86 1007.5 7.6 W 9.8 0.0 1.7
03:55 10.0 7.8 86 1007.5 6.0 SW 8.3 0.0 1.7
03:56 10.0 7.8 86 1007.4 6.0 SW 8.3 0.0 1.7
03:57 10.0 7.8 86 1007.5 5.4 SW 8.3 0.0 1.7
03:58 10.0 7.8 86 1007.4 6.9 WNW 8.3 0.0 1.7
03:59 10.0 7.8 86 1007.5 7.6 WNW 8.3 0.0 1.7
04:00 10.0 7.8 86 1007.5 7.6 SW 8.3 0.0 1.7
04:01 10.0 7.8 86 1007.5 5.4 W 8.3 0.0 1.7
04:02 10.0 7.8 86 1007.6 6.0 SW 8.3 0.0 1.7
04:03 9.9 7.7 86 1007.5 7.6 N 7.6 0.0 1.7
04:04 9.9 7.7 86 1007.5 7.6 N 7.6 0.0 1.7
04:05 9.9 7.7 86 1007.5 8.3 SW 8.3 0.0 1.7
04:06 9.9 7.7 86 1007.5 5.4 NNE 8.3 0.0 1.7
04:07 9.9 7.7 86 1007.5 5.4 SW 8.3 0.0 1.7
04:08 9.9 7.7 86 1007.5 8.3 W 8.3 0.0 1.7
04:09 9.8 7.6 86 1007.5 8.3 W 8.3 0.0 1.7
04:11 9.8 7.6 86 1007.4 6.0 SW 8.3 0.0 1.7
04:12 9.8 7.6 86 1007.5 6.9 SW 8.3 0.0 1.7
04:13 9.8 7.6 86 1007.5 6.9 SW 8.3 0.0 1.7
04:14 9.8 7.6 86 1007.6 7.6 SW 8.3 0.0 1.7
04:15 9.8 7.6 86 1007.6 9.2 SW 9.2 0.0 1.7
04:16 9.7 7.5 86 1007.5 7.6 SW 9.2 0.0 1.7
04:17 9.7 7.5 86 1007.5 4.5 SW 9.2 0.0 1.7
04:18 9.7 7.5 86 1007.4 6.0 WSW 9.2 0.0 1.7
04:19 9.7 7.5 86 1007.5 7.6 SW 9.2 0.0 1.7
04:20 9.7 7.5 86 1007.5 8.3 SW 9.2 0.0 1.7
04:21 9.7 7.5 86 1007.5 5.4 SW 9.2 0.0 1.7
04:22 9.7 7.5 86 1007.6 6.9 SW 9.2 0.0 1.7
04:23 9.6 7.4 86 1007.5 7.6 SW 9.2 0.0 1.7
04:24 9.6 7.4 86 1007.5 8.3 SW 9.2 0.0 1.7
04:25 9.6 7.4 86 1007.6 7.6 SW 9.2 0.0 1.7
04:26 9.6 7.4 86 1007.5 9.2 SW 9.2 0.0 1.7
04:27 9.6 7.4 86 1007.5 8.3 NW 9.2 0.0 1.7
04:28 9.6 7.4 86 1007.6 6.9 SW 9.2 0.0 1.7
04:29 9.6 7.4 86 1007.4 9.2 SW 9.2 0.0 1.7
04:30 9.6 7.4 86 1007.6 10.7 W 10.7 0.0 1.7
04:31 9.6 7.4 86 1007.6 9.2 SW 10.7 0.0 1.7
04:32 9.6 7.4 86 1007.3 8.3 WSW 10.7 0.0 1.7
04:33 9.6 7.4 86 1007.5 6.9 W 10.7 0.0 1.7
04:34 9.6 7.5 87 1007.6 8.3 SW 10.7 0.0 1.7
04:36 9.6 7.4 86 1007.6 9.2 S 10.7 0.0 1.7
04:37 9.6 7.4 86 1007.6 7.6 SW 10.7 0.0 1.7
04:39 9.6 7.4 86 1007.6 6.9 SW 10.7 0.0 1.7
04:40 9.6 7.5 87 1007.5 7.6 WSW 10.7 0.0 1.7
04:41 9.6 7.5 87 1007.5 7.6 WSW 9.2 0.0 1.7
04:42 9.6 7.5 87 1007.5 9.8 W 9.8 0.0 1.7
04:43 9.6 7.4 86 1007.5 6.0 W 9.8 0.0 1.7
04:44 9.6 7.4 86 1007.6 5.4 W 9.8 0.0 1.7
04:45 9.6 7.5 87 1007.5 9.2 SW 9.8 0.0 1.7
04:46 9.6 7.5 87 1007.4 9.8 W 9.8 0.0 1.7
04:47 9.7 7.5 86 1007.6 6.9 WNW 9.8 0.0 1.7
04:48 9.6 7.5 87 1007.4 10.7 W 10.7 0.0 1.7
04:49 9.7 7.6 87 1007.4 10.7 SW 10.7 0.0 1.7
04:50 9.7 7.6 87 1007.5 6.0 SW 10.7 0.0 1.7
04:51 9.6 7.5 87 1007.5 8.3 NW 10.7 0.0 1.7
04:52 9.7 7.5 86 1007.5 6.9 W 10.7 0.0 1.7
04:53 9.6 7.4 86 1007.5 9.2 W 10.7 0.0 1.7
04:54 9.7 7.5 86 1007.6 8.3 W 10.7 0.0 1.7
04:55 9.7 7.6 87 1007.5 6.9 SW 10.7 0.0 1.7
04:56 9.7 7.6 87 1007.7 6.0 SW 10.7 0.0 1.7
04:58 9.6 7.5 87 1007.5 7.6 NW 10.7 0.0 1.7
04:59 9.6 7.5 87 1007.5 8.3 W 9.8 0.0 1.7
05:00 9.7 7.5 86 1007.5 8.3 SSW 9.8 0.0 1.7
05:01 9.6 7.5 87 1007.7 6.9 W 9.8 0.0 1.7
05:02 9.7 7.6 87 1007.7 6.0 SW 9.8 0.0 1.7
05:03 9.7 7.6 87 1007.6 6.0 SW 9.8 0.0 1.7
05:04 9.7 7.6 87 1007.7 6.0 SW 9.8 0.0 1.7
05:05 9.7 7.6 87 1007.7 6.0 SW 8.3 0.0 1.7
05:06 9.7 7.6 87 1007.6 6.0 SW 8.3 0.0 1.7
05:07 9.7 7.6 87 1007.5 6.0 SW 8.3 0.0 1.7
05:08 9.7 7.6 87 1007.5 8.3 SW 8.3 0.0 1.7
05:09 9.7 7.6 87 1007.6 6.0 S 8.3 0.0 1.7
05:10 9.7 7.6 87 1007.6 6.9 W 8.3 0.0 1.7
05:11 9.7 7.6 87 1007.6 6.9 SW 8.3 0.0 1.7
05:12 9.7 7.6 87 1007.7 6.9 N 8.3 0.0 1.7
05:13 9.7 7.6 87 1007.8 6.9 SW 8.3 0.0 1.7
05:14 9.7 7.6 87 1007.5 9.8 SW 9.8 0.0 1.7
05:15 9.7 7.6 87 1007.6 9.2 W 9.8 0.0 1.7
05:16 9.7 7.6 87 1007.7 8.3 SW 9.8 0.0 1.7
05:17 9.8 7.7 87 1007.6 11.4 SW 11.4 0.0 1.7
05:19 9.8 7.7 87 1007.6 12.1 WSW 12.1 0.0 1.7
05:20 9.9 7.8 87 1007.5 10.7 SW 12.1 0.0 1.7
05:21 9.9 7.8 87 1007.6 10.7 SW 12.1 0.0 1.7
05:22 9.9 7.8 87 1007.8 12.1 SW 12.1 0.0 1.7
05:23 9.9 7.8 87 1007.6 12.1 SW 12.1 0.0 1.7
05:24 10.0 7.9 87 1007.5 8.3 SW 12.1 0.0 1.7
05:25 10.0 7.9 87 1007.6 6.9 SW 12.1 0.0 1.7
05:26 10.0 7.9 87 1007.7 9.8 W 12.1 0.0 1.7
05:27 10.0 7.9 87 1007.6 10.7 SW 12.1 0.0 1.7
05:28 10.0 7.9 87 1007.7 10.7 N 12.1 0.0 1.7
05:29 10.0 7.9 87 1007.6 11.4 N 12.1 0.0 1.7
05:30 10.0 7.9 87 1007.8 12.1 NW 12.1 0.0 1.7
05:31 10.0 7.9 87 1007.8 9.2 WSW 12.1 0.0 1.7
05:32 10.0 7.9 87 1007.8 9.8 SW 12.1 0.0 1.8
05:33 10.0 7.9 87 1007.8 12.1 WSW 12.1 0.8 1.8
05:34 10.0 7.9 87 1007.8 12.1 S 12.1 0.8 1.8
05:35 10.0 7.9 87 1007.8 13.6 SW 16.8 1.5 1.8
05:36 10.0 7.9 87 1007.7 10.7 W 16.8 1.5 1.9
05:38 10.0 7.9 87 1007.6 9.2 WSW 16.8 1.5 1.9
05:39 10.0 7.9 87 1007.8 14.5 SW 16.8 1.5 1.9
05:40 10.0 7.9 87 1007.6 9.2 SW 16.8 0.8 1.9
05:41 10.0 7.9 87 1007.7 13.0 SW 16.8 0.8 1.9
05:42 10.0 7.9 87 1007.7 9.8 W 16.8 0.0 1.9
05:43 10.1 8.0 87 1007.9 10.7 SW 16.8 0.0 1.9
05:44 10.1 8.0 87 1007.7 11.4 W 16.8 0.0 1.9
05:45 10.1 8.0 87 1007.6 8.3 S 14.5 0.0 1.9
05:46 10.1 8.0 87 1007.7 9.8 S 14.5 0.0 1.9
05:47 10.1 8.0 87 1007.7 9.2 SW 14.5 0.0 1.9
05:48 10.1 8.0 87 1007.7 9.2 WSW 14.5 0.0 1.9
05:49 10.0 7.9 87 1007.6 10.7 SW 14.5 0.0 1.9
05:50 10.0 7.9 87 1007.8 10.7 SW 13.0 0.0 1.9
05:51 10.0 7.9 87 1007.7 10.7 SW 13.0 0.0 1.9
05:52 10.0 7.9 87 1007.8 12.1 SW 12.1 0.0 1.9
05:53 10.0 7.9 87 1007.8 13.0 SW 13.0 0.0 1.9
05:54 10.0 7.9 87 1007.8 12.1 SW 13.0 0.0 1.9
05:55 10.0 7.9 87 1007.9 8.3 W 13.0 0.0 1.9
05:57 10.0 7.9 87 1008.0 15.2 WSW 15.2 0.0 1.9
05:58 10.1 8.0 87 1007.9 12.1 W 15.2 0.0 1.9
05:59 10.0 7.9 87 1007.9 9.8 W 15.2 0.0 1.9
06:00 10.1 8.0 87 1007.8 13.6 NW 15.2 0.0 1.9
06:01 10.1 8.0 87 1007.9 12.1 W 15.2 0.0 1.9
06:02 10.1 8.0 87 1007.8 12.1 NW 15.2 0.0 1.9
06:03 10.1 8.0 87 1007.9 12.1 NW 15.2 0.0 1.9
06:04 10.1 8.0 87 1007.8 12.1 NW 15.2 0.0 1.9
06:05 10.1 8.0 87 1007.8 13.6 NW 15.2 0.0 1.9
06:06 10.1 8.0 87 1007.8 10.7 NW 15.2 0.0 1.9
06:07 10.1 8.0 87 1007.8 9.8 W 15.2 0.0 1.9
06:08 10.1 8.0 87 1007.7 12.1 W 13.6 0.0 1.9
06:09 10.1 8.0 87 1007.8 13.0 NW 13.6 0.0 1.9
06:10 10.1 8.0 87 1007.9 12.1 W 13.6 0.0 1.9
06:11 10.1 8.0 87 1007.9 11.4 SW 13.6 0.0 1.9
06:12 10.1 8.0 87 1007.9 9.2 WSW 13.6 0.0 1.9
06:13 10.1 7.9 86 1007.8 9.2 W 13.6 0.0 1.9
06:14 10.0 7.9 87 1007.8 9.8 W 13.6 0.0 1.9
06:16 10.0 7.8 86 1007.8 10.7 W 13.0 0.0 1.9
06:17 10.0 7.8 86 1007.7 10.7 SW 13.0 0.0 1.9
06:18 10.0 7.8 86 1007.9 6.9 SW 13.0 0.0 1.9
06:19 10.0 7.8 86 1007.9 9.2 SW 12.1 0.0 1.9
06:20 10.0 7.8 86 1007.8 9.8 SW 12.1 0.0 1.9
06:21 10.0 7.8 86 1007.9 8.3 SW 11.4 0.0 1.9
06:22 10.0 7.8 86 1007.9 8.3 SW 11.4 0.0 1.9
06:23 10.0 7.8 86 1007.9 9.2 SW 11.4 0.0 1.9
06:24 10.0 7.8 86 1007.9 7.6 W 11.4 0.0 1.9
06:25 10.0 7.8 86 1007.8 6.0 SW 11.4 0.0 1.9
06:26 10.0 7.8 86 1007.6 11.4 SW 11.4 0.0 1.9
06:27 9.9 7.7 86 1007.8 9.8 SW 11.4 0.0 1.9
06:28 9.9 7.7 86 1007.7 9.8 SW 11.4 0.0 1.9
06:29 9.9 7.7 86 1007.9 9.8 SW 11.4 0.0 1.9
06:30 9.9 7.7 86 1008.0 10.7 SW 11.4 0.0 1.9
06:31 9.9 7.7 86 1008.0 6.0 W 11.4 0.0 1.9
06:32 9.9 7.7 86 1007.9 7.6 SW 11.4 0.0 1.9
06:33 9.9 7.7 86 1008.0 6.9 SSW 11.4 0.0 1.9
06:35 9.8 7.6 86 1007.9 9.2 SW 11.4 0.0 1.9
06:36 9.8 7.6 86 1007.9 10.7 SW 10.7 0.0 1.9
06:37 9.8 7.6 86 1007.7 11.4 S 11.4 0.0 1.9
06:38 9.8 7.6 86 1008.0 10.7 W 11.4 0.0 1.9
06:39 9.8 7.6 86 1007.9 8.3 NW 11.4 0.0 1.9
06:40 9.7 7.5 86 1007.9 7.6 SW 11.4 0.0 1.9
06:41 9.7 7.5 86 1007.9 7.6 SW 11.4 0.0 1.9
06:42 9.8 7.6 86 1008.0 9.8 W 11.4 0.0 1.9
06:43 9.7 7.5 86 1007.9 7.6 S 11.4 0.0 1.9
06:44 9.7 7.5 86 1007.9 8.3 NNE 11.4 0.0 1.9
06:45 9.7 7.5 86 1008.0 8.3 W 11.4 0.0 1.9
06:46 9.7 7.5 86 1007.9 9.8 S 11.4 0.0 1.9
06:47 9.7 7.5 86 1007.9 6.9 SW 11.4 0.0 1.9
06:48 9.7 7.5 86 1007.9 9.2 NW 10.7 0.0 1.9
06:49 9.7 7.5 86 1008.0 6.9 N 9.8 0.0 1.9
06:50 9.7 7.5 86 1008.0 7.6 SW 9.8 0.0 1.9
06:51 9.7 7.5 86 1007.9 8.3 SW 11.4 0.0 1.9
06:52 9.7 7.5 86 1008.0 8.3 S 11.4 0.0 1.9
06:54 9.7 7.5 86 1007.9 9.2 S 11.4 0.0 1.9
06:55 9.7 7.5 86 1008.0 9.8 SW 11.4 0.0 1.9
06:56 9.7 7.5 86 1008.0 8.3 SW 11.4 0.0 1.9
06:57 9.7 7.5 86 1008.0 6.9 SW 11.4 0.0 1.9
06:58 9.7 7.5 86 1008.1 6.9 WSW 11.4 0.0 1.9
06:59 9.7 7.5 86 1008.1 6.9 WSW 11.4 0.0 1.9
07:00 9.7 7.5 86 1008.1 9.2 W 11.4 0.0 1.9
07:01 9.7 7.5 86 1008.1 8.3 W 11.4 0.0 1.9
07:02 9.7 7.5 86 1008.0 7.6 NW 11.4 0.0 1.9
07:03 9.7 7.5 86 1008.0 7.6 SW 11.4 0.0 1.9
07:04 9.7 7.5 86 1008.1 7.6 SW 11.4 0.0 1.9
07:05 9.7 7.5 86 1008.1 7.6 SW 11.4 0.0 1.9
07:06 9.7 7.5 86 1008.2 7.6 S 11.4 0.0 1.9
07:07 9.7 7.5 86 1008.1 8.3 SW 9.8 0.0 1.9
07:08 9.7 7.5 86 1008.0 7.6 SW 9.8 0.0 1.9
07:09 9.7 7.5 86 1008.0 9.8 SW 9.8 0.0 1.9
07:11 9.7 7.5 86 1008.1 8.3 SW 9.8 0.0 1.9
07:12 9.8 7.6 86 1008.1 5.4 SW 9.8 0.0 1.9
07:13 9.8 7.6 86 1008.0 6.9 W 9.8 0.0 1.9
07:14 9.8 7.6 86 1008.2 8.3 SW 9.8 0.0 1.9
07:15 9.8 7.6 86 1008.1 8.3 W 9.8 0.0 1.9
07:16 9.8 7.6 86 1008.0 6.0 SW 9.8 0.0 1.9
07:17 9.8 7.6 86 1008.2 8.3 SW 9.8 0.0 1.9
07:18 9.8 7.6 86 1008.1 6.9 SW 9.8 0.0 1.9
07:19 9.8 7.6 86 1008.2 6.0 SW 9.8 0.0 1.9
07:20 9.8 7.6 86 1008.2 5.4 W 9.2 0.0 1.9
07:21 9.8 7.6 86 1008.1 7.6 SW 9.2 0.0 1.9
07:22 9.8 7.6 86 1008.0 5.4 S 9.2 0.0 1.9
07:23 9.8 7.6 86 1008.1 8.3 SW 8.3 0.0 1.9
07:24 9.8 7.6 86 1008.1 5.4 S 8.3 0.0 1.9
07:25 9.8 7.6 86 1008.1 9.2 SW 9.2 0.0 1.9
07:27 9.8 7.6 86 1008.1 6.0 SW 9.8 0.0 1.9
07:28 9.8 7.6 86 1008.1 10.7 SW 10.7 0.0 1.9
07:29 9.8 7.6 86 1008.1 8.3 SW 10.7 0.0 1.9
07:30 9.8 7.6 86 1008.2 5.4 WNW 10.7 0.0 1.9
07:31 9.8 7.6 86 1008.2 9.8 S 10.7 0.0 1.9
07:32 9.8 7.6 86 1008.2 6.9 SW 10.7 0.0 1.9
07:33 9.7 7.5 86 1008.1 7.6 SW 10.7 0.0 1.9
07:34 9.7 7.5 86 1008.2 6.0 SW 10.7 0.0 1.9
07:35 9.7 7.5 86 1008.2 5.4 SW 10.7 0.0 1.9
07:36 9.7 7.5 86 1008.1 7.6 SW 10.7 0.0 1.9
07:37 9.7 7.5 86 1008.2 9.2 SW 10.7 0.0 1.9
07:38 9.6 7.4 86 1008.2 6.9 SW 10.7 0.0 1.9
07:39 9.6 7.4 86 1008.1 7.6 NW 9.8 0.0 1.9
07:40 9.6 7.4 86 1008.3 9.2 SW 9.8 0.0 1.9
07:41 9.6 7.4 86 1008.2 7.6 SW 9.8 0.0 1.9
07:42 9.6 7.4 86 1008.2 9.8 WNW 9.8 0.0 1.9
07:43 9.6 7.4 86 1008.3 5.4 S 9.8 0.0 1.9
07:45 9.5 7.3 86 1008.2 6.9 NNW 9.8 0.0 1.9
07:46 9.6 7.4 86 1008.1 6.0 SW 9.8 0.0 1.9
07:47 9.5 7.3 86 1008.2 7.6 SW 9.8 0.0 1.9
07:48 9.5 7.3 86 1008.2 4.5 SW 9.8 0.0 1.9
07:49 9.5 7.3 86 1008.2 4.5 SW 9.8 0.0 1.9
07:50 9.5 7.3 86 1008.2 5.4 SW 9.8 0.0 1.9
07:51 9.5 7.3 86 1008.1 5.4 NW 9.8 0.0 1.9
07:52 9.5 7.3 86 1008.2 6.9 SW 9.8 0.0 1.9
07:53 9.5 7.3 86 1008.1 5.4 SW 7.6 0.0 1.9
07:54 9.5 7.3 86 1008.2 5.4 SW 7.6 0.0 1.9
07:55 9.5 7.3 86 1008.1 7.6 WSW 7.6 0.0 1.9
07:56 9.5 7.3 86 1008.3 4.5 SW 7.6 0.0 1.9
07:57 9.5 7.3 86 1008.2 8.3 SW 8.3 0.0 1.9
07:58 9.5 7.3 86 1008.2 8.3 SW 8.3 0.0 1.9
08:00 9.6 7.4 86 1008.2 7.6 SW 8.3 0.0 1.9
08:01 9.6 7.2 85 1008.3 6.0 NW 8.3 0.0 1.9
08:02 9.6 7.2 85 1008.2 9.2 S 9.2 0.0 1.9
08:03 9.6 7.2 85 1008.2 9.2 S 9.2 0.0 1.9
08:04 9.6 7.4 86 1008.1 7.6 N 9.8 0.0 1.9
08:05 9.7 7.5 86 1008.1 10.7 NW 10.7 0.0 1.9
08:06 9.7 7.5 86 1008.3 9.8 SW 10.7 0.0 1.9
08:07 9.7 7.5 86 1008.2 7.6 W 10.7 0.0 1.9
08:08 9.7 7.5 86 1008.2 6.0 SW 10.7 0.0 1.9
08:09 9.7 7.5 86 1008.3 8.3 WNW 10.7 0.0 1.9
08:10 9.8 7.6 86 1008.4 6.0 SW 10.7 0.0 1.9
08:11 9.8 7.6 86 1008.4 6.0 SW 10.7 0.0 1.9
08:12 9.8 7.6 86 1008.3 6.9 SW 10.7 0.0 1.9
08:13 9.8 7.6 86 1008.5 6.0 WSW 10.7 0.0 1.9
08:15 9.9 7.7 86 1008.4 6.9 W 10.7 0.0 1.9
08:16 9.9 7.7 86 1008.5 6.9 SW 9.8 0.0 1.9
08:17 9.9 7.7 86 1008.4 4.5 SW 8.3 0.0 1.9
08:18 9.9 7.7 86 1008.5 5.4 W 8.3 0.0 1.9
08:19 9.9 7.5 85 1008.3 5.4 S 7.6 0.0 1.9
08:20 9.9 7.7 86 1008.5 8.3 W 8.3 0.0 1.9
08:21 10.0 7.8 86 1008.5 6.9 SW 8.3 0.0 1.9
08:22 10.0 7.8 86 1008.4 6.0 SW 8.3 0.0 1.9
08:23 10.0 7.8 86 1008.5 7.6 SW 8.3 0.0 1.9
08:24 10.0 7.8 86 1008.5 6.9 SW 8.3 0.0 1.9
08:25 10.0 7.8 86 1008.4 6.0 SW 8.3 0.0 1.9
08:26 10.0 7.8 86 1008.5 5.4 SW 8.3 0.0 1.9
08:27 10.0 7.8 86 1008.6 4.5 SW 8.3 0.0 1.9
08:28 10.0 7.8 86 1008.7 5.4 SW 8.3 0.0 1.9
08:30 10.0 7.6 85 1008.7 6.9 SW 8.3 0.0 1.9
08:31 10.0 7.6 85 1008.6 6.9 SW 8.3 0.0 1.9
08:32 10.0 7.8 86 1008.8 6.9 SW 8.3 0.0 1.9
08:33 10.0 7.8 86 1008.8 6.0 SW 8.3 0.0 1.9
08:34 10.0 7.8 86 1008.8 6.0 SW 8.3 0.0 1.9
08:35 10.0 7.6 85 1008.8 6.0 SW 8.3 0.0 1.9
08:36 10.1 7.7 85 1008.7 8.3 SW 8.3 0.0 1.9
08:37 10.1 7.9 86 1008.9 7.6 SW 8.3 0.0 1.9
08:38 10.1 7.9 86 1008.7 5.4 SW 8.3 0.0 1.9
08:39 10.1 7.7 85 1008.9 8.3 WSW 8.3 0.0 1.9
08:40 10.3 7.9 85 1008.8 8.3 W 8.3 0.0 1.9
08:41 10.1 7.7 85 1008.8 7.6 SW 8.3 0.0 1.9
08:42 10.1 7.7 85 1008.8 6.0 W 8.3 0.0 1.9
08:44 10.1 7.7 85 1008.8 6.0 W 8.3 0.0 1.9
08:45 10.2 7.8 85 1008.9 6.9 SW 8.3 0.0 1.9
08:46 10.2 7.8 85 1008.9 8.3 SW 8.3 0.0 1.9
08:47 10.2 7.8 85 1008.9 6.0 SW 8.3 0.0 1.9
08:48 10.2 7.8 85 1008.9 6.0 SW 8.3 0.0 1.9
08:49 10.2 7.8 85 1008.8 5.4 SW 8.3 0.0 1.9
08:50 10.2 7.8 85 1008.8 7.6 W 8.3 0.0 1.9
08:51 10.2 7.8 85 1008.9 4.5 SW 8.3 0.0 1.9
08:52 10.3 7.9 85 1008.9 6.9 SW 8.3 0.0 1.9
08:53 10.3 7.9 85 1009.0 8.3 NW 8.3 0.0 1.9
08:54 10.3 7.9 85 1009.0 10.7 SW 10.7 0.0 1.9
08:55 10.3 7.9 85 1008.9 9.8 SW 10.7 0.0 1.9
08:56 10.3 7.9 85 1009.0 6.9 SW 10.7 0.0 1.9
08:58 10.3 7.9 85 1008.9 6.9 SW 10.7 0.0 1.9
08:59 10.4 8.0 85 1009.0 9.8 NNW 10.7 0.0 1.9
09:00 10.4 8.0 85 1009.0 9.2 WSW 10.7 0.0 1.9
09:01 10.4 8.0 85 1009.0 7.6 S 10.7 0.0 1.9
09:02 10.4 8.0 85 1009.0 6.9 SW 10.7 0.0 1.9
09:03 10.4 8.0 85 1009.0 6.9 SW 10.7 0.0 1.9
09:04 10.4 8.0 85 1009.2 6.9 SW 9.8 0.0 1.9
09:05 10.4 8.0 85 1009.0 6.9 SW 9.8 0.0 1.9
09:06 10.4 8.0 85 1008.9 6.9 SW 9.8 0.0 1.9
09:07 10.4 8.0 85 1009.0 6.9 SW 9.8 0.0 1.9
09:08 10.5 8.1 85 1009.0 8.3 S 9.8 0.0 1.9
09:09 10.5 8.1 85 1009.0 8.3 SW 9.8 0.0 1.9
09:10 10.6 8.2 85 1008.9 6.9 SW 9.2 0.0 1.9
09:11 10.6 8.2 85 1008.9 6.9 SW 9.2 0.0 1.9
09:12 10.6 8.2 85 1008.9 12.1 NW 12.1 0.0 1.9
09:13 10.6 8.2 85 1009.0 8.3 SW 12.1 0.0 1.9
09:14 10.6 8.2 85 1009.1 6.9 SW 12.1 0.0 1.9
09:16 10.6 8.2 85 1009.1 11.4 SW 12.1 0.0 1.9
09:17 10.6 8.2 85 1009.0 9.2 W 12.1 0.0 1.9
09:18 10.7 8.3 85 1009.1 9.8 SW 12.1 0.0 1.9
09:19 10.7 8.3 85 1009.0 7.6 S 12.1 0.0 1.9
09:20 10.7 8.3 85 1009.0 7.6 W 12.1 0.0 1.9
09:21 10.7 8.3 85 1009.0 7.6 SW 12.1 0.0 1.9
09:22 10.7 8.3 85 1009.2 6.0 SW 12.1 0.0 1.9
09:23 10.8 8.4 85 1009.0 9.2 SW 11.4 0.0 1.9
09:24 10.8 8.4 85 1009.1 8.3 S 11.4 0.0 1.9
09:25 10.8 8.4 85 1009.1 8.3 SSW 11.4 0.0 1.9
09:26 10.8 8.4 85 1009.1 6.9 S 11.4 0.0 1.9
09:27 10.8 8.4 85 1009.0 7.6 SW 9.8 0.0 1.9
09:28 10.9 8.5 85 1009.1 5.4 SW 9.8 0.0 1.9
09:29 10.9 8.5 85 1009.1 6.0 SW 9.8 0.0 1.9
09:31 10.9 8.5 85 1009.1 7.6 W 9.8 0.0 1.9
09:32 10.9 8.5 85 1009.2 8.3 S 9.8 0.0 1.9
09:33 10.9 8.5 85 1009.2 9.2 S 9.8 0.0 1.9
09:34 10.9 8.5 85 1009.2 9.2 S 9.8 0.0 1.9
09:35 11.0 8.6 85 1009.1 9.8 SW 9.8 0.0 1.9
09:36 11.0 8.6 85 1009.1 9.8 SW 9.8 0.0 1.9
09:37 11.0 8.6 85 1009.1 11.4 SW 11.4 0.0 1.9
09:38 11.1 8.7 85 1009.2 7.6 S 11.4 0.0 1.9
09:39 11.1 8.7 85 1009.1 12.1 S 12.1 0.0 1.9
09:40 11.1 8.7 85 1009.1 10.7 S 12.1 0.0 1.9
09:41 11.2 8.8 85 1009.0 12.1 W 12.1 0.0 1.9
09:42 11.2 8.8 85 1009.0 9.8 W 12.1 0.0 1.9
09:43 11.3 8.9 85 1009.1 12.1 SW 12.1 0.0 1.9
09:45 11.3 8.9 85 1009.2 9.8 W 12.1 0.0 1.9
09:46 11.4 9.0 85 1009.1 9.8 SW 12.1 0.0 1.9
09:47 11.4 9.0 85 1009.0 11.4 SW 12.1 0.0 1.9
09:48 11.4 9.0 85 1009.1 13.0 SW 13.0 0.0 1.9
09:49 11.4 9.0 85 1009.1 13.0 SW 13.0 0.0 1.9
09:50 11.5 9.1 85 1009.2 9.2 S 13.0 0.0 1.9
09:51 11.5 9.1 85 1009.2 13.6 SW 13.6 0.0 1.9
09:52 11.5 9.1 85 1009.1 10.7 W 13.6 0.0 1.9
09:53 11.6 9.2 85 1009.1 9.2 SW 13.6 0.0 1.9
09:54 11.6 9.2 85 1009.1 9.2 SW 13.6 0.0 1.9
09:55 11.6 9.2 85 1009.1 8.3 WSW 13.6 0.0 1.9
09:56 11.7 9.3 85 1009.3 9.8 SW 13.6 0.0 1.9
09:57 11.7 9.3 85 1009.3 9.8 NW 13.6 0.0 1.9
09:58 11.8 9.4 85 1009.2 11.4 SW 13.6 0.0 1.9
10:00 11.8 9.4 85 1009.2 7.6 S 13.6 0.0 1.9
10:01 11.9 9.5 85 1009.3 13.0 SW 13.0 0.0 1.9
10:02 11.9 9.5 85 1009.2 7.6 S 13.0 0.0 1.9
10:03 11.9 9.5 85 1009.3 7.6 S 13.0 0.0 1.9
10:04 12.0 9.6 85 1009.2 13.0 SW 13.0 0.0 1.9
10:05 12.0 9.6 85 1009.3 13.6 S 13.6 0.0 1.9
10:06 12.1 9.7 85 1009.1 17.4 NW 17.4 0.0 1.9
10:07 12.1 9.5 84 1009.3 14.5 W 17.4 0.0 1.9
10:08 12.1 9.5 84 1009.3 16.8 SW 17.4 0.0 1.9
10:09 12.1 9.5 84 1009.2 11.4 SW 17.4 0.0 1.9
10:10 12.1 9.5 84 1009.3 17.4 NW 17.4 0.0 1.9
10:11 12.2 9.6 84 1009.2 14.5 NW 17.4 0.0 1.9
10:12 12.2 9.6 84 1009.3 15.2 SW 17.4 0.0 1.9
10:14 12.2 9.4 83 1009.4 13.6 S 17.4 0.0 1.9
10:15 12.3 9.5 83 1009.4 16.8 SW 18.3 0.0 1.9
10:16 12.3 9.5 83 1009.4 13.0 SW 18.3 0.0 1.9
10:17 12.3 9.5 83 1009.4 10.7 SW 18.3 0.0 1.9
10:18 12.3 9.5 83 1009.3 10.7 W 18.3 0.0 1.9
10:19 12.3 9.5 83 1009.3 13.0 NW 18.3 0.0 1.9
10:20 12.3 9.3 82 1009.5 13.0 SW 18.3 0.0 1.9
10:21 12.4 9.4 82 1009.2 14.5 NW 18.3 0.0 1.9
10:22 12.4 9.4 82 1009.3 13.6 SW 18.3 0.0 1.9
10:23 12.4 9.4 82 1009.2 22.1 SW 22.1 0.0 1.9
10:24 12.4 9.4 82 1009.3 12.1 WSW 22.1 0.0 1.9
10:25 12.4 9.4 82 1009.2 14.5 SW 22.1 0.0 1.9
10:26 12.5 9.5 82 1009.3 10.7 SW 22.1 0.0 1.9
10:27 12.5 9.5 82 1009.3 15.9 N 22.1 0.0 1.9
10:29 12.6 9.4 81 1009.4 11.4 SW 22.1 0.0 1.9
10:30 12.6 9.6 82 1009.3 16.8 WSW 22.1 0.0 1.9
10:31 12.7 9.5 81 1009.2 13.6 SSW 22.1 0.0 1.9
10:32 12.7 9.5 81 1009.2 13.6 SSW 22.1 0.0 1.9
10:33 12.7 9.5 81 1009.3 15.2 SW 22.1 0.0 1.9
10:34 12.7 9.5 81 1009.3 13.6 S 16.8 0.0 1.9
10:35 12.8 9.6 81 1009.3 17.4 SW 17.4 0.0 1.9
10:36 12.8 9.6 81 1009.5 13.0 WNW 17.4 0.0 1.9
10:37 12.8 9.6 81 1009.4 17.4 SW 17.4 0.0 1.9
10:38 12.8 9.4 80 1009.5 11.4 S 17.4 0.0 1.9
10:39 12.8 9.4 80 1009.4 15.2 SW 17.4 0.0 1.9
10:40 12.8 9.4 80 1009.4 15.9 SW 17.4 0.0 1.9
10:41 12.7 9.3 80 1009.3 15.9 WSW 17.4 0.0 1.9
10:42 12.6 9.1 79 1009.4 14.5 W 17.4 0.0 1.9
10:43 12.6 9.1 79 1009.5 9.2 W 17.4 0.0 1.9
10:45 12.6 9.1 79 1009.5 12.1 SW 17.4 0.0 1.9
10:46 12.6 9.1 79 1009.5 13.0 SW 17.4 0.0 1.9
10:47 12.6 9.1 79 1009.5 9.8 W 16.8 0.0 1.9
10:48 12.6 9.1 79 1009.4 8.3 SE 16.8 0.0 1.9
10:49 12.6 9.1 79 1009.4 12.1 N 16.8 0.0 1.9
10:50 12.6 9.1 79 1009.3 15.2 WSW 16.8 0.0 1.9
10:51 12.7 9.2 79 1009.5 16.8 SW 16.8 0.0 1.9
10:52 12.7 9.2 79 1009.4 15.9 SW 16.8 0.0 1.9
10:53 12.7 9.2 79 1009.4 15.2 S 16.8 0.0 1.9
10:54 12.8 9.3 79 1009.5 15.9 SW 16.8 0.0 1.9
10:55 12.8 9.3 79 1009.4 9.2 S 16.8 0.0 1.9
10:56 12.9 9.4 79 1009.4 20.6 SW 20.6 0.0 1.9
10:57 12.9 9.4 79 1009.3 14.5 SW 20.6 0.0 1.9
10:59 12.9 9.2 78 1009.3 17.4 SW 20.6 0.0 1.9
11:01 13.0 9.3 78 1009.4 15.9 NW 20.6 0.0 1.9
11:02 13.0 9.3 78 1009.5 13.6 NW 20.6 0.0 1.9
11:03 13.0 9.3 78 1009.4 15.9 NW 20.6 0.0 1.9
11:04 13.0 9.1 77 1009.4 15.2 S 20.6 0.0 1.9
11:05 13.1 9.2 77 1009.5 13.6 NW 20.6 0.0 1.9
11:06 13.1 9.2 77 1009.4 16.8 WNW 20.6 0.0 1.9
11:07 13.2 9.3 77 1009.4 14.5 SW 17.4 0.0 1.9
11:08 13.2 9.3 77 1009.4 18.3 W 18.3 0.0 1.9
11:09 13.2 9.1 76 1009.4 17.4 SW 18.3 0.0 1.9
11:10 13.2 9.1 76 1009.4 15.2 SW 18.3 0.0 1.9
11:11 13.2 9.1 76 1009.4 15.2 SW 18.3 0.0 1.9
11:12 13.2 8.9 75 1009.4 17.4 W 18.3 0.0 1.9
11:13 13.2 8.9 75 1009.4 17.4 WNW 18.3 0.0 1.9
11:14 13.2 8.9 75 1009.4 18.3 SW 18.3 0.0 1.9
11:15 13.2 8.7 74 1009.2 17.4 NW 18.3 0.0 1.9
11:16 13.1 8.6 74 1009.5 14.5 NW 18.3 0.0 1.9
11:18 13.0 8.5 74 1009.4 14.5 SW 18.3 0.0 1.9
11:19 13.0 8.5 74 1009.4 15.2 SW 18.3 0.0 1.9
11:20 12.9 8.4 74 1009.3 13.6 SW 18.3 0.0 1.9
11:21 12.9 8.4 74 1009.4 16.8 SW 18.3 0.0 1.9
11:22 12.9 8.2 73 1009.4 18.3 SW 21.3 0.0 1.9
11:23 12.9 8.2 73 1009.3 13.6 SW 21.3 0.0 1.9
11:24 12.9 8.2 73 1009.4 12.1 SSW 21.3 0.0 1.9
11:25 12.9 8.4 74 1009.3 15.9 NW 21.3 0.0 1.9
11:26 13.0 8.3 73 1009.3 17.4 SW 21.3 0.0 1.9
11:27 13.1 8.6 74 1009.5 22.1 SW 22.1 0.0 1.9
11:28 13.2 8.7 74 1009.4 17.4 SW 22.1 0.0 1.9
11:29 13.2 8.7 74 1009.5 19.7 SW 22.1 0.0 1.9
11:30 13.3 8.8 74 1009.3 13.6 NW 22.1 0.0 1.9
11:32 13.5 9.0 74 1009.3 15.2 S 22.1 0.0 1.9
11:33 13.6 9.1 74 1009.4 13.6 WSW 22.1 0.0 1.9
11:34 13.7 9.2 74 1009.2 15.9 SW 22.1 0.0 1.9
11:35 13.8 9.3 74 1009.3 14.5 SW 22.1 0.0 1.9
11:36 13.9 9.3 74 1009.3 25.9 SW 25.9 0.0 1.9
11:37 14.0 9.2 73 1009.4 21.3 SW 25.9 0.0 1.9
11:38 14.1 9.3 73 1009.4 13.6 SW 25.9 0.0 1.9
11:39 14.1 9.3 73 1009.4 17.4 SW 25.9 0.0 1.9
11:40 14.2 9.4 73 1009.3 19.7 WSW 25.9 0.0 1.9
11:41 14.2 9.4 73 1009.4 13.6 SW 25.9 0.0 1.9
11:42 14.3 9.5 73 1009.4 16.8 SW 25.9 0.0 1.9
11:43 14.2 9.4 73 1009.3 15.9 SW 25.9 0.0 1.9
11:44 14.3 9.5 73 1009.3 22.8 NW 25.9 0.0 1.9
11:45 14.3 9.3 72 1009.4 12.1 N 25.9 0.0 1.9
11:46 14.3 9.3 72 1009.2 15.9 N 23.5 0.0 1.9
11:47 14.3 9.3 72 1009.2 15.9 SW 23.5 0.0 1.9
11:48 14.3 9.3 72 1009.3 18.3 NNW 22.8 0.0 1.9
11:49 14.2 9.0 71 1009.4 17.4 SW 22.8 0.0 1.9
11:50 14.2 9.0 71 1009.4 17.4 SW 22.8 0.0 1.9
11:51 14.2 9.0 71 1009.4 15.9 NW 22.8 0.0 1.9
11:52 14.1 8.9 71 1009.3 16.8 W 22.8 0.0 1.9
11:53 14.0 8.8 71 1009.4 18.3 SW 22.8 0.0 1.9
11:54 14.0 8.8 71 1009.5 13.6 SW 22.8 0.0 1.9
11:56 13.9 8.7 71 1009.4 20.6 NW 20.6 0.0 1.9
11:57 13.8 8.6 71 1009.5 17.4 W 20.6 0.0 1.9
11:58 13.6 8.4 71 1009.6 16.8 S 20.6 0.8 2.1
11:59 13.6 8.4 71 1009.6 13.0 W 20.6 2.3 2.1
12:00 13.5 8.3 71 1009.8 13.6 WNW 20.6 3.0 2.2
12:01 13.4 8.3 71 1009.6 18.3 S 20.6 4.5 2.3
12:02 13.2 8.1 71 1009.6 13.0 WNW 20.6 5.3 2.3
12:03 13.2 8.1 71 1009.6 13.0 WNW 20.6 4.5 2.3
12:04 13.0 8.1 72 1009.7 13.6 SW 20.6 3.0 2.4
12:05 12.8 7.9 72 1009.6 11.4 SW 20.6 3.0 2.4
12:06 12.8 7.9 72 1009.6 11.4 SW 18.3 1.5 2.4
12:07 12.7 7.8 72 1009.6 11.4 NW 18.3 0.8 2.4
12:08 12.6 7.7 72 1009.5 9.2 NW 18.3 0.8 2.4
12:09 12.5 7.8 73 1009.5 10.7 SW 18.3 0.8 2.4
12:11 12.4 7.7 73 1009.5 12.1 W 18.3 0.0 2.4
12:12 12.3 7.6 73 1009.5 13.6 NNW 18.3 0.0 2.4
12:13 12.3 7.8 74 1009.5 9.8 WSW 13.6 0.0 2.4
12:14 12.3 7.8 74 1009.5 7.6 SW 13.6 0.0 2.4
12:15 12.3 7.8 74 1009.4 11.4 NW 13.6 0.0 2.4
12:16 12.3 8.0 75 1009.5 11.4 NW 13.6 0.0 2.4
12:17 12.3 8.0 75 1009.4 13.6 W 13.6 0.0 2.4
12:18 12.3 8.0 75 1009.5 10.7 WNW 13.6 0.0 2.4
12:19 12.4 8.1 75 1009.6 16.8 SW 16.8 0.0 2.4
12:20 12.4 8.1 75 1009.6 16.8 SW 16.8 0.0 2.4
12:21 12.5 8.4 76 1009.6 14.5 SW 16.8 0.0 2.4
12:22 12.5 8.4 76 1009.5 13.0 SW 16.8 0.0 2.4
12:23 12.6 8.5 76 1009.4 15.2 W 16.8 0.0 2.4
12:24 12.7 8.6 76 1009.5 16.8 S 16.8 0.0 2.4
12:26 12.9 9.0 77 1009.4 12.1 W 20.6 0.0 2.4
12:27 12.9 9.0 77 1009.4 15.9 WSW 20.6 0.0 2.4
12:28 13.1 9.2 77 1009.4 21.3 NW 21.3 0.0 2.4
12:29 13.2 9.3 77 1009.5 19.0 S 21.3 0.0 2.4
12:30 13.2 9.3 77 1009.5 19.0 SW 21.3 0.0 2.4
12:31 13.3 9.4 77 1009.4 15.2 SW 21.3 0.0 2.4
12:32 13.3 9.4 77 1009.4 13.6 SW 21.3 0.0 2.4
12:33 13.5 9.6 77 1009.5 22.1 WSW 22.1 0.0 2.4
12:34 13.5 9.6 77 1009.5 14.5 S 22.1 0.0 2.4
12:35 13.5 9.6 77 1009.5 14.5 S 22.1 0.0 2.4
12:36 13.5 9.6 77 1009.5 15.2 WSW 22.1 0.0 2.4
12:37 13.6 9.6 77 1009.4 17.4 W 22.1 0.0 2.4
12:38 13.6 9.6 77 1009.5 17.4 NW 22.1 0.0 2.4
12:40 13.7 9.7 77 1009.5 17.4 W 22.1 0.0 2.4
12:41 13.8 9.8 77 1009.6 14.5 SW 22.1 0.0 2.4
12:42 13.9 9.9 77 1009.6 12.1 SW 22.1 0.0 2.4
12:43 13.9 9.9 77 1009.5 11.4 S 22.1 0.0 2.4
12:44 13.9 9.9 77 1009.5 10.7 S 19.7 0.0 2.4
12:45 14.0 10.0 77 1009.6 15.2 SW 19.7 0.0 2.4
12:46 14.0 10.0 77 1009.5 15.9 S 19.7 0.0 2.4
12:47 14.0 10.0 77 1009.5 16.8 S 19.7 0.0 2.4
12:48 14.1 10.1 77 1009.4 19.0 SW 19.7 0.0 2.4
12:49 14.1 10.1 77 1009.5 25.9 SW 25.9 0.0 2.4
12:50 14.1 10.1 77 1009.5 22.1 SW 25.9 0.0 2.4
12:51 14.2 10.0 76 1009.5 18.3 SW 25.9 0.0 2.4
12:52 14.2 10.0 76 1009.5 16.8 W 25.9 0.0 2.4
12:53 14.3 10.1 76 1009.5 15.2 SW 25.9 0.0 2.4
12:55 14.4 10.2 76 1009.4 9.8 SW 25.9 0.0 2.4
12:56 14.5 10.3 76 1009.2 19.0 S 25.9 0.0 2.4
12:57 14.6 10.2 75 1009.3 16.8 SW 25.9 0.0 2.4
12:58 14.6 10.2 75 1009.4 16.8 SW 25.9 0.0 2.4
12:59 14.7 10.3 75 1009.3 20.6 SW 22.1 0.0 2.4
13:00 14.7 10.3 75 1009.4 15.2 W 20.6 0.0 2.4
13:01 14.7 10.1 74 1009.3 15.9 SW 20.6 0.0 2.4
13:02 14.7 10.1 74 1009.5 14.5 SW 20.6 0.0 2.4
13:03 14.7 10.1 74 1009.5 14.5 SW 20.6 0.0 2.4
13:04 14.6 9.8 73 1009.4 21.3 SW 21.3 0.0 2.4
13:05 14.6 9.8 73 1009.4 17.4 WSW 21.3 0.0 2.4
13:06 14.5 9.7 73 1009.2 13.0 NW 21.3 0.0 2.4
13:07 14.5 9.7 73 1009.3 19.7 W 21.3 0.0 2.4
13:08 14.5 9.5 72 1009.2 19.7 WSW 21.3 0.0 2.4
13:09 14.5 9.5 72 1009.3 17.4 NW 21.3 0.0 2.4
13:10 14.5 9.5 72 1009.5 20.6 SW 21.3 0.0 2.4
13:11 14.6 9.6 72 1009.2 20.6 SW 21.3 0.0 2.4
13:12 14.6 9.6 72 1009.1 15.9 SW 21.3 0.0 2.4
13:14 14.6 9.6 72 1009.3 20.6 SSW 21.3 0.0 2.4
13:15 14.5 9.3 71 1009.3 19.0 S 21.3 0.0 2.4
13:16 14.5 9.3 71 1009.2 16.8 SW 22.1 0.0 2.4
13:17 14.5 9.3 71 1009.3 16.8 NNW 22.1 0.0 2.4
13:18 14.5 9.3 71 1009.4 20.6 S 22.1 0.0 2.4
13:19 14.5 9.3 71 1009.2 22.1 SW 22.1 0.0 2.4
13:20 14.5 9.3 71 1009.2 21.3 WSW 22.1 0.0 2.4
13:21 14.5 9.1 70 1009.2 17.4 SE 22.1 0.0 2.4
13:22 14.6 9.2 70 1009.4 16.8 S 22.1 0.0 2.4
13:23 14.6 9.2 70 1009.4 16.8 S 22.1 0.0 2.4
13:24 14.7 9.3 70 1009.2 15.9 SW 23.5 0.0 2.4
13:25 14.7 9.3 70 1009.3 18.3 SW 23.5 0.0 2.4
13:26 14.7 9.3 70 1009.3 19.7 SW 23.5 0.0 2.4
13:27 14.7 9.3 70 1009.3 16.8 SW 23.5 0.0 2.4
13:29 14.8 9.4 70 1009.3 13.6 W 23.5 0.0 2.4
13:30 14.9 9.5 70 1009.3 18.3 SW 23.5 0.0 2.4
13:31 15.0 9.6 70 1009.2 24.4 SW 24.4 0.0 2.4
13:32 15.0 9.6 70 1009.2 15.9 SW 24.4 0.0 2.4
13:33 15.0 9.6 70 1009.2 16.8 W 24.4 0.0 2.4
13:34 15.0 9.4 69 1009.3 0.7 NW 24.4 0.0 2.4
13:35 15.0 9.4 69 1009.2 13.0 NW 24.4 0.0 2.4
13:36 15.0 9.4 69 1009.4 0.0 SW 24.4 0.0 2.4
13:37 15.0 9.1 68 1009.2 13.0 S 24.4 0.0 2.4
13:38 15.0 9.1 68 1009.2 13.0 S 24.4 0.0 2.4
13:39 14.9 9.1 68 1009.2 14.5 WNW 24.4 0.0 2.4
13:40 14.8 9.0 68 1009.0 0.0 NW 24.4 0.0 2.4
13:41 14.8 9.0 68 1009.2 3.8 SW 24.4 0.0 2.4
13:42 14.7 8.9 68 1009.1 0.7 NW 21.3 0.0 2.4
13:44 14.6 9.0 69 1009.2 13.6 SW 14.5 0.0 2.4
13:45 14.5 8.9 69 1009.2 9.8 SW 14.5 0.0 2.4
13:46 14.4 8.8 69 1009.1 14.5 SW 14.5 0.0 2.4
13:47 14.4 8.8 69 1009.2 14.5 SW 14.5 0.0 2.4
13:48 14.3 8.7 69 1009.1 13.0 NW 14.5 0.0 2.4
13:49 14.2 8.6 69 1009.1 0.7 S 14.5 0.0 2.4
13:50 14.2 8.6 69 1009.1 13.6 S 14.5 0.0 2.4
13:51 14.2 8.8 70 1009.2 6.0 WSW 14.5 0.0 2.4
13:52 14.3 8.9 70 1009.1 0.0 SW 14.5 0.0 2.4
13:53 14.3 8.9 70 1009.2 0.7 SW 14.5 0.0 2.4
13:54 14.4 9.2 71 1009.2 0.7 SW 14.5 0.0 2.4
13:55 14.5 9.3 71 1009.1 11.4 SW 16.8 0.0 2.4
13:56 14.5 9.3 71 1009.2 4.5 SW 16.8 0.0 2.4
13:58 14.6 9.4 71 1009.3 0.7 S 16.8 0.0 2.4
13:59 14.7 9.5 71 1009.4 0.0 NNW 16.8 0.0 2.4
14:00 14.7 9.5 71 1009.2 0.7 NW 16.8 0.0 2.4
14:01 14.7 9.5 71 1009.2 0.0 NW 16.8 0.0 2.4
14:02 14.7 9.5 71 1009.2 0.0 NW 16.8 0.0 2.4
14:03 14.6 9.4 71 1009.1 0.7 SW 16.8 0.0 2.4
14:04 14.6 9.4 71 1009.2 0.7 SW 16.8 0.0 2.4
14:05 14.6 9.4 71 1009.2 0.7 SW 11.4 0.0 2.4
14:06 14.6 9.4 71 1009.3 0.7 SW 4.5 0.0 2.4
14:08 14.3 9.1 71 1009.3 6.9 SW 6.9 0.0 2.4
14:09 14.2 9.0 71 1009.2 0.7 SW 6.9 0.0 2.4
14:10 14.1 8.9 71 1009.1 0.7 S 6.9 0.0 2.4
14:11 14.0 8.8 71 1009.2 4.5 SW 6.9 0.0 2.4
14:12 14.0 8.8 71 1009.2 0.0 SW 6.9 0.0 2.4
14:13 14.0 9.0 72 1009.1 4.5 SSW 6.9 0.0 2.4
14:14 13.9 8.9 72 1009.1 4.5 SE 6.9 0.0 2.4
14:15 14.0 9.0 72 1009.0 0.0 SW 6.9 0.0 2.4
14:17 14.1 9.3 73 1008.9 1.6 SW 6.9 0.0 2.4
14:18 14.1 9.3 73 1009.2 0.7 S 6.9 0.0 2.4
14:20 14.3 9.5 73 1009.1 22.1 SW 22.1 0.0 2.4
14:21 14.3 9.3 72 1009.2 15.2 SW 22.1 0.0 2.4
14:24 14.4 9.4 72 1009.2 15.2 NW 22.1 0.0 2.4
14:26 14.5 9.5 72 1009.3 15.2 SW 22.1 0.0 2.4
14:27 14.5 9.5 72 1009.2 13.0 SW 22.1 0.0 2.4
14:29 14.5 9.1 70 1009.2 3.8 SW 22.1 0.0 2.4
14:30 14.5 9.1 70 1009.2 0.7 SW 17.4 0.0 2.4
14:31 14.4 9.0 70 1009.2 0.7 NW 17.4 0.0 2.4
14:32 14.4 9.0 70 1009.2 0.0 SE 15.2 0.0 2.4
14:33 14.3 8.9 70 1009.2 0.7 WSW 15.2 0.0 2.4
14:34 14.3 8.9 70 1009.2 9.8 SW 15.2 0.0 2.4
14:35 14.2 8.8 70 1009.3 15.2 NW 15.2 0.0 2.4
14:36 14.1 8.7 70 1009.3 13.0 SW 15.2 0.0 2.4
14:37 14.1 8.7 70 1009.2 6.0 SW 15.2 0.0 2.4
14:38 14.0 8.6 70 1009.3 0.7 SW 15.2 0.0 2.4
14:39 14.0 8.6 70 1009.0 0.0 SW 15.2 0.0 2.4
14:40 13.9 8.7 71 1009.1 9.8 SW 15.2 0.0 2.4
14:41 13.8 8.6 71 1009.0 0.7 NW 15.2 0.0 2.4
14:43 13.7 8.5 71 1008.9 0.0 SW 15.2 0.0 2.4
14:44 13.6 8.4 71 1009.0 0.0 S 15.2 0.0 2.4
14:45 13.6 8.4 71 1009.0 0.0 SW 15.2 0.0 2.4
14:46 13.5 8.6 72 1009.0 0.0 W 13.0 0.0 2.4
14:47 13.5 8.6 72 1009.0 0.0 WSW 13.0 0.0 2.4
14:48 13.4 8.5 72 1009.1 0.0 S 13.0 0.8 2.5
14:49 13.4 8.5 72 1009.3 0.7 SW 13.0 3.0 2.6
14:50 13.3 8.4 72 1008.9 0.7 SW 0.7 6.0 3.0
14:51 13.3 8.4 72 1008.9 0.7 SW 0.7 7.6 3.0
14:52 13.2 8.5 73 1008.8 1.6 SW 1.6 7.6 3.0
14:53 13.1 8.4 73 1009.2 0.0 SW 1.6 7.6 3.1
14:54 13.0 8.3 73 1009.2 0.0 NW 1.6 6.0 3.1
14:55 13.0 8.3 73 1009.3 0.7 NW 1.6 3.8 3.2
14:56 12.9 8.2 73 1009.4 0.0 N 1.6 5.3 3.5
14:58 12.8 8.3 74 1009.2 0.0 W 1.6 6.8 3.7
14:59 12.7 8.2 74 1009.2 0.0 WNW 1.6 6.8 3.7
15:00 12.7 8.2 74 1009.2 0.0 NW 1.6 6.0 3.7
15:01 12.6 8.1 74 1009.2 0.0 W 1.6 3.0 3.7
15:02 12.6 8.3 75 1009.2 0.0 NW 0.7 0.8 3.7
15:03 12.6 8.3 75 1009.3 0.0 NW 0.7 0.8 3.7
15:04 12.6 8.3 75 1009.5 0.7 W 0.7 0.0 3.7
15:05 12.5 8.2 75 1009.5 1.6 NW 1.6 0.0 4.0
15:06 12.4 8.1 75 1009.3 0.7 NW 1.6 3.8 4.4
15:07 12.4 8.1 75 1009.1 0.0 WSW 1.6 8.3 4.5
15:08 12.3 8.0 75 1009.2 0.0 WSW 1.6 9.1 4.5
15:09 12.2 7.9 75 1009.3 0.0 WNW 1.6 9.8 4.5
15:10 12.2 7.9 75 1009.3 0.0 WNW 1.6 9.8 4.5
15:11 12.1 7.8 75 1009.5 1.6 W 1.6 6.0 4.5
15:12 12.0 7.7 75 1009.4 0.0 S 1.6 1.5 4.5
15:13 11.8 7.5 75 1009.4 0.0 SW 1.6 1.5 4.6
15:14 11.7 7.4 75 1009.4 0.0 W 1.6 0.8 4.6
15:16 11.6 7.5 76 1009.2 0.0 SW 10.7 0.8 4.6
15:17 11.5 7.4 76 1009.4 0.0 SW 10.7 1.5 4.7
15:18 11.5 7.4 76 1009.3 1.6 NW 10.7 0.8 4.7
15:19 11.4 7.3 76 1009.3 0.0 NW 10.7 0.8 4.7
15:20 11.4 7.3 76 1009.2 0.0 SW 10.7 0.8 4.7
15:21 11.4 7.5 77 1009.2 0.0 N 10.7 0.8 4.7
15:22 11.4 7.5 77 1009.2 0.0 W 10.7 0.0 4.7
15:23 11.4 7.5 77 1009.1 0.0 WSW 10.7 0.0 4.7
15:24 11.4 7.5 77 1009.1 0.0 WSW 10.7 0.0 4.7
15:25 11.4 7.5 77 1009.1 0.0 WSW 1.6 0.0 4.7
15:26 11.5 7.6 77 1009.1 0.0 SW 1.6 0.0 4.7
15:27 11.5 7.6 77 1008.9 0.0 W 1.6 0.0 4.7
15:28 11.5 7.8 78 1008.7 0.0 WSW 1.6 0.0 4.7
15:29 11.5 7.8 78 1009.0 0.0 W 0.0 0.0 4.7
15:31 11.6 7.9 78 1009.1 0.7 SW 0.7 0.0 4.7
15:32 11.6 7.9 78 1009.0 0.0 NW 0.7 0.0 4.7
15:33 11.6 8.1 79 1009.4 0.0 W 0.7 0.0 4.7
15:34 11.6 8.1 79 1009.4 0.0 NW 0.7 0.0 4.7
15:35 11.6 8.1 79 1009.3 0.0 WSW 0.7 0.0 4.7
15:36 11.6 8.1 79 1009.4 0.7 SW 0.7 0.0 4.7
15:37 11.7 8.2 79 1009.3 0.0 SW 0.7 0.0 4.7
15:38 11.7 8.2 79 1009.3 0.0 SW 0.7 0.0 4.7
15:39 11.7 8.2 79 1009.4 0.0 S 0.7 0.0 4.7
15:40 11.7 8.2 79 1009.3 0.0 SW 0.7 0.0 4.7
15:41 11.8 8.5 80 1009.2 0.0 SW 0.7 0.0 4.7
15:42 11.8 8.5 80 1009.3 0.0 W 0.7 0.0 4.7
15:43 11.8 8.5 80 1009.5 0.7 N 0.7 0.0 4.7
15:44 11.9 8.6 80 1009.4 0.0 N 0.7 0.0 4.7
15:45 12.1 8.8 80 1009.4 15.2 N 15.2 0.0 4.7
15:46 12.2 9.0 81 1009.4 13.6 SW 15.2 0.0 4.7
15:47 12.3 9.1 81 1009.4 8.3 W 15.2 0.0 4.7
15:48 12.4 9.2 81 1009.3 13.6 WSW 15.2 0.0 4.7
15:49 12.6 9.4 81 1009.3 20.6 SW 20.6 0.0 4.7
15:50 12.7 9.5 81 1009.4 19.7 SW 20.6 0.0 4.7
15:51 12.8 9.6 81 1009.4 22.8 SW 22.8 0.0 4.7
15:52 12.8 9.6 81 1009.5 19.0 SW 22.8 0.0 4.7
15:53 12.9 9.7 81 1009.2 16.8 SW 24.4 0.0 4.7
15:54 12.9 9.5 80 1009.2 19.0 SW 24.4 0.0 4.7
15:55 12.9 9.5 80 1009.3 18.3 SW 24.4 0.0 4.7
15:56 12.9 9.5 80 1009.5 15.9 NW 24.4 0.0 4.7
15:57 12.9 9.5 80 1009.3 16.8 SW 24.4 0.0 4.7
15:58 12.9 9.4 79 1009.2 18.3 SW 24.4 0.0 4.7
15:59 13.0 9.4 79 1009.2 10.7 S 24.4 0.0 4.7
16:00 13.0 9.4 79 1009.2 10.7 S 24.4 0.0 4.7
16:01 13.1 9.5 79 1009.1 0.0 SW 24.4 0.0 4.7
16:02 13.1 9.5 79 1009.3 1.6 W 24.4 0.0 4.7
16:03 13.1 9.5 79 1009.3 0.0 WNW 24.4 0.0 4.7
16:04 13.1 9.5 79 1009.1 0.0 WNW 19.0 0.0 4.7
16:05 13.2 9.6 79 1009.1 0.0 SW 18.3 0.0 4.7
16:06 13.2 9.6 79 1009.3 0.0 SW 18.3 0.0 4.7
16:07 13.2 9.6 79 1009.1 0.0 SW 18.3 0.0 4.7
16:08 13.2 9.6 79 1009.2 14.5 SW 18.3 0.0 4.7
16:09 13.3 9.5 78 1009.0 0.7 WSW 14.5 0.0 4.7
16:10 13.3 9.5 78 1009.2 0.0 S 14.5 0.0 4.7
16:11 13.2 9.5 78 1009.2 5.4 S 14.5 0.0 4.7
16:12 13.2 9.5 78 1009.2 0.0 SW 14.5 0.0 4.7
16:13 13.2 9.5 78 1009.1 12.1 SW 14.5 0.0 4.7
16:14 13.2 9.3 77 1009.1 0.0 NW 14.5 0.0 4.7
16:15 13.1 9.2 77 1009.1 6.9 SW 14.5 0.0 4.7
16:16 13.1 9.2 77 1009.1 15.2 SW 15.2 0.0 4.7
16:18 13.1 9.2 77 1009.3 0.0 SW 15.2 0.0 4.7
16:19 13.1 9.2 77 1009.0 12.1 NW 15.2 0.0 4.7
16:20 13.1 9.4 78 1009.0 2.2 SW 15.2 0.0 4.7
16:22 13.1 9.4 78 1009.0 13.6 N 15.2 0.0 4.7
16:23 13.1 9.4 78 1009.1 0.0 SW 15.2 0.0 4.7
16:25 13.1 9.4 78 1009.0 0.7 WSW 15.2 0.0 4.7
16:26 13.2 9.5 78 1009.1 0.7 WSW 15.9 0.0 4.7
16:27 13.2 9.5 78 1009.2 0.0 SW 15.9 0.0 4.7
16:28 13.3 9.5 78 1009.1 0.0 SW 15.9 0.0 4.7
16:29 13.3 9.5 78 1009.1 0.0 NW 15.9 0.0 4.7
16:30 13.3 9.5 78 1009.2 0.7 SW 15.9 0.0 4.7
16:31 13.4 9.6 78 1009.0 0.0 S 15.9 0.0 4.7
16:32 13.4 9.6 78 1009.0 18.3 SW 18.3 0.0 4.7
16:33 13.3 9.5 78 1008.9 0.0 W 18.3 0.0 4.7
16:34 13.3 9.5 78 1009.0 15.9 WNW 18.3 0.0 4.7
16:35 13.3 9.5 78 1008.9 14.5 WNW 18.3 0.0 4.7
16:36 13.3 9.5 78 1009.0 0.0 NW 18.3 0.0 4.7
16:37 13.3 9.4 77 1009.1 0.0 W 18.3 0.0 4.7
16:38 13.2 9.3 77 1008.9 0.7 SW 18.3 0.0 4.7
16:39 13.2 9.3 77 1009.0 0.0 WNW 18.3 0.0 4.7
16:40 13.2 9.3 77 1009.0 0.7 WNW 18.3 0.0 4.7
16:41 13.1 9.2 77 1009.0 15.2 SW 18.3 0.0 4.7
16:42 13.1 9.2 77 1009.1 0.7 WSW 15.9 0.0 4.7
16:43 13.1 9.2 77 1009.2 0.7 S 15.9 0.0 4.7
16:44 13.1 9.2 77 1009.1 0.0 SW 15.9 0.0 4.7
16:45 13.1 9.2 77 1009.0 0.0 W 15.2 0.0 4.7
16:46 13.1 9.2 77 1009.1 0.0 SW 15.2 0.0 4.7
16:47 13.1 9.2 77 1008.9 0.0 S 15.2 0.0 4.7
16:48 13.1 9.2 77 1009.0 0.0 SW 15.2 0.0 4.7
16:49 13.1 9.4 78 1009.1 0.0 WSW 15.2 0.0 4.7
16:50 13.1 9.2 77 1009.0 0.0 WSW 15.2 0.0 4.7
16:51 13.1 9.4 78 1009.1 0.0 SW 15.2 0.0 4.7
16:52 13.1 9.4 78 1009.1 8.3 SW 17.4 0.0 4.7
16:53 13.1 9.4 78 1009.0 1.6 W 17.4 0.0 4.7
16:54 13.1 9.4 78 1008.9 0.7 SW 17.4 0.0 4.7
16:55 13.1 9.4 78 1009.1 8.3 WNW 17.4 0.0 4.7
16:56 13.1 9.4 78 1009.1 9.2 SW 17.4 0.0 4.7
16:57 13.1 9.2 77 1009.0 0.0 NW 17.4 0.0 4.7
16:58 13.1 9.2 77 1009.1 0.7 NW 17.4 0.0 4.7
16:59 13.1 9.2 77 1009.0 0.0 SW 17.4 0.0 4.7
17:00 13.1 9.2 77 1009.1 4.5 SW 17.4 0.0 4.7
17:01 13.1 9.2 77 1009.0 0.0 SW 17.4 0.0 4.7
17:02 13.1 9.2 77 1009.0 0.0 SW 13.0 0.0 4.7
17:03 13.1 9.2 77 1009.0 0.0 SW 13.0 0.0 4.7
17:04 13.1 9.2 77 1009.1 0.0 S 13.0 0.0 4.7
17:05 13.1 9.2 77 1008.9 0.0 SW 13.0 0.0 4.7
17:06 13.1 9.2 77 1008.9 0.0 SW 13.0 0.0 4.7
17:07 13.1 9.0 76 1009.0 0.0 W 13.0 0.0 4.7
17:08 13.1 9.0 76 1009.2 0.0 NW 4.5 0.0 4.7
17:09 13.1 9.0 76 1009.0 11.4 NW 11.4 0.0 4.7
17:10 13.1 9.0 76 1009.0 0.7 WSW 11.4 0.0 4.7
17:11 13.1 9.0 76 1009.0 0.0 N 11.4 0.0 4.7
17:12 13.1 9.0 76 1009.0 0.0 SW 11.4 0.0 4.7
17:13 13.0 8.9 76 1009.0 0.0 W 11.4 0.0 4.7
17:14 13.0 8.9 76 1009.0 0.0 S 11.4 0.0 4.7
17:15 13.0 8.9 76 1009.1 0.0 SSW 11.4 0.0 4.7
17:16 13.0 8.9 76 1009.1 0.0 W 11.4 0.0 4.7
17:18 13.0 8.9 76 1009.0 0.0 SW 11.4 0.0 4.7
17:19 13.0 8.9 76 1009.0 0.0 W 6.9 0.0 4.7
17:20 13.0 8.9 76 1009.0 0.0 SW 6.9 0.0 4.7
17:21 12.9 8.8 76 1009.0 0.0 S 6.9 0.0 4.7
17:22 12.9 8.8 76 1009.0 0.7 SW 6.9 0.0 4.7
17:23 12.9 8.8 76 1009.0 0.0 S 6.9 0.0 4.7
17:24 12.9 8.8 76 1009.0 0.0 W 6.9 0.0 4.7
17:25 12.9 8.8 76 1009.3 0.0 W 6.9 0.0 4.7
17:26 12.9 8.8 76 1009.2 0.0 W 6.9 0.0 4.7
17:27 12.9 8.8 76 1009.3 0.7 S 6.9 0.0 4.7
17:28 12.9 8.8 76 1009.2 0.0 W 6.9 0.0 4.7
17:29 12.9 9.0 77 1009.3 0.7 SW 0.7 0.0 4.7
17:30 12.9 8.8 76 1009.1 15.2 S 15.2 0.0 4.7
17:31 12.9 9.0 77 1009.2 0.0 W 15.2 0.0 4.7
17:32 12.9 9.0 77 1009.2 0.0 SW 15.2 0.0 4.7
17:33 12.9 8.8 76 1009.3 0.0 NW 15.2 0.0 4.7
17:34 12.9 8.8 76 1009.2 0.0 SW 15.2 0.0 4.7
17:36 12.9 8.8 76 1009.2 1.6 SW 15.2 0.0 4.7
17:37 12.8 8.9 77 1009.3 0.0 SW 15.2 0.0 4.7
17:38 12.8 8.7 76 1009.4 0.0 SW 15.2 0.0 4.7
17:39 12.9 8.8 76 1009.3 0.0 SSW 15.2 0.0 4.7
17:40 12.8 8.7 76 1009.2 0.0 SW 1.6 0.0 4.7
17:41 12.8 8.9 77 1009.3 0.0 SW 1.6 0.0 4.7
17:42 12.8 8.9 77 1009.2 0.0 SW 1.6 0.0 4.7
17:43 12.8 8.9 77 1009.2 0.0 SW 1.6 0.0 4.7
17:44 12.8 8.9 77 1009.2 0.7 W 1.6 0.0 4.7
17:45 12.8 8.9 77 1009.3 0.0 NW 1.6 0.0 4.7
17:46 12.8 8.9 77 1009.3 0.0 SW 1.6 0.0 4.7
17:47 12.7 8.8 77 1009.3 0.7 SW 0.7 0.0 4.7
17:48 12.8 8.9 77 1009.1 0.0 WNW 0.7 0.0 4.7
17:49 12.8 8.9 77 1009.1 0.0 SW 0.7 0.0 4.7
17:50 12.7 8.8 77 1009.2 0.0 W 0.7 0.0 4.7
17:51 12.7 8.8 77 1009.3 0.0 SW 0.7 0.0 4.7
17:52 12.7 8.8 77 1009.2 0.0 SW 0.7 0.0 4.7
17:53 12.7 8.8 77 1009.2 0.0 SW 0.7 0.0 4.7
17:54 12.7 8.8 77 1009.3 0.0 W 0.7 0.0 4.7
17:55 12.7 8.8 77 1009.3 0.0 SW 0.7 0.0 4.7
17:56 12.7 8.8 77 1009.2 0.0 SW 0.7 0.0 4.7
17:57 12.6 8.7 77 1009.1 0.0 S 0.7 0.0 4.7
17:58 12.6 8.7 77 1009.2 0.0 SW 0.0 0.0 4.7
17:59 12.6 8.7 77 1009.1 0.0 S 0.0 0.0 4.7
18:00 12.6 8.7 77 1009.0 0.0 SW 0.0 0.0 4.7
18:01 12.6 8.9 78 1009.0 0.0 W 0.0 0.0 4.7
18:02 12.6 8.9 78 1009.1 0.0 SW 0.0 0.0 4.7
18:03 12.6 8.9 78 1009.0 0.0 SW 0.0 0.0 4.7
18:04 12.6 8.9 78 1009.0 0.0 SW 0.0 0.0 4.7
18:05 12.6 8.9 78 1009.0 0.0 SW 0.0 0.0 4.7
18:06 12.6 8.9 78 1009.0 0.0 SW 0.0 0.0 4.7
18:07 12.6 8.9 78 1009.0 0.0 SW 0.0 0.0 4.7
18:08 12.4 8.7 78 1009.1 0.0 SW 0.0 0.0 4.7
18:09 12.4 8.7 78 1009.2 0.0 SW 0.0 0.0 4.7
18:10 12.4 8.7 78 1009.0 0.0 SW 0.0 0.0 4.7
18:11 12.3 8.6 78 1009.2 0.0 SW 0.0 0.0 4.7
18:12 12.3 8.4 77 1009.1 0.0 W 0.0 0.0 4.7
18:13 12.3 8.4 77 1009.1 0.0 SW 0.7 0.0 4.7
18:14 12.2 8.3 77 1009.3 0.0 SW 0.7 0.0 4.7
18:15 12.2 8.3 77 1009.3 0.0 W 0.7 0.0 4.7
18:16 12.2 8.3 77 1009.4 0.0 SW 0.7 0.0 4.7
18:17 12.1 8.2 77 1009.4 0.0 SW 0.7 0.0 4.7
18:18 12.1 8.2 77 1009.4 0.0 S 0.7 0.0 4.7
18:19 12.0 8.1 77 1009.5 0.0 SW 0.7 0.0 4.7
18:20 12.0 8.1 77 1009.3 0.0 SW 0.7 0.0 4.7
18:21 11.9 8.0 77 1009.3 0.0 S 0.7 0.0 4.7
18:22 11.9 8.0 77 1009.4 0.0 SW 0.7 0.0 4.7
18:23 11.9 8.0 77 1009.4 0.0 WNW 0.7 0.0 4.7
18:24 11.8 7.9 77 1009.5 0.0 SE 0.0 0.0 4.7
18:25 11.8 7.9 77 1009.4 0.0 W 0.0 0.0 4.7
18:26 11.8 7.9 77 1009.4 0.0 WSW 0.0 0.0 4.7
18:27 11.8 7.7 76 1009.7 0.0 W 0.0 0.0 4.7
18:28 11.7 7.6 76 1009.5 0.0 SW 0.0 0.0 4.7
18:29 11.7 7.6 76 1009.8 0.0 SW 0.0 0.0 4.7
18:30 11.7 7.6 76 1009.5 0.0 SW 0.0 0.0 4.7
18:31 11.7 7.6 76 1009.5 0.0 SW 0.0 0.0 4.7
18:32 11.6 7.5 76 1009.5 0.0 WSW 0.0 0.0 4.7
18:33 11.6 7.5 76 1009.5 0.0 SW 0.0 0.0 4.7
18:34 11.6 7.5 76 1009.5 0.0 SW 0.0 0.0 4.7
18:35 11.6 7.5 76 1009.6 0.0 SW 0.0 0.0 4.7
18:36 11.6 7.5 76 1009.4 0.7 W 0.7 0.0 4.7
18:37 11.6 7.5 76 1009.5 0.0 SW 0.7 0.0 4.7
18:38 11.5 7.4 76 1009.6 0.0 SW 0.7 0.0 4.7
18:39 11.5 7.4 76 1009.4 0.0 SW 0.7 0.0 4.7
18:40 11.5 7.4 76 1009.5 0.0 S 0.7 0.0 4.7
18:41 11.5 7.4 76 1009.5 0.0 SW 0.7 0.0 4.7
18:42 11.5 7.4 76 1009.5 0.0 S 0.7 0.0 4.7
18:43 11.5 7.4 76 1009.5 0.0 W 0.7 0.0 4.7
18:44 11.5 7.4 76 1009.4 0.0 SW 0.7 0.0 4.7
18:45 11.5 7.6 77 1009.5 0.0 NW 0.7 0.0 4.7
18:46 11.5 7.6 77 1009.5 0.0 NNW 0.7 0.0 4.7
18:47 11.5 7.6 77 1009.6 0.0 WSW 0.7 0.0 4.7
18:48 11.5 7.6 77 1009.6 0.0 S 0.0 0.0 4.7
18:49 11.5 7.6 77 1009.6 0.0 SW 0.0 0.0 4.7
18:50 11.5 7.6 77 1009.6 0.0 SW 0.0 0.0 4.7
18:51 11.5 7.6 77 1009.6 0.0 NW 0.0 0.0 4.7
18:52 11.5 7.6 77 1009.6 0.0 N 0.0 0.0 4.7
18:53 11.5 7.6 77 1009.5 0.0 S 0.0 0.8 4.7
18:54 11.5 7.6 77 1009.5 0.0 S 0.0 0.8 4.7
18:55 11.5 7.6 77 1009.5 0.0 S 0.0 0.8 4.7
18:56 11.5 7.6 77 1009.6 0.0 SW 0.0 0.8 4.7
18:57 11.5 7.6 77 1009.6 0.7 SW 0.7 0.8 4.7
18:58 11.5 7.6 77 1009.7 1.6 SW 1.6 0.0 4.7
18:59 11.5 7.8 78 1009.6 0.0 SW 1.6 0.0 4.7
19:00 11.5 7.8 78 1009.6 0.0 SW 1.6 0.0 4.7
19:01 11.5 7.8 78 1009.7 0.0 SW 1.6 0.0 4.7
19:02 11.5 7.8 78 1009.7 0.7 SW 1.6 0.0 4.7
19:03 11.5 7.8 78 1009.8 0.0 SW 1.6 0.8 4.8
19:04 11.5 7.8 78 1009.7 0.0 SW 1.6 0.8 4.8
19:05 11.5 7.8 78 1009.7 0.0 SW 1.6 0.8 4.8
19:06 11.5 7.8 78 1009.7 0.0 SW 1.6 0.8 4.8
19:07 11.5 7.8 78 1009.6 0.0 SW 1.6 0.8 4.8
19:08 11.5 8.0 79 1009.5 0.0 SW 1.6 0.0 4.8
19:09 11.5 8.0 79 1009.7 0.0 SW 0.7 0.0 4.8
19:10 11.5 8.0 79 1009.5 0.0 NW 0.7 0.0 4.8
19:11 11.5 8.0 79 1009.7 0.0 SW 0.7 0.0 4.8
19:12 11.4 7.9 79 1009.8 0.0 W 0.0 0.0 4.8
19:13 11.4 7.9 79 1009.7 0.0 W 0.0 0.8 4.9
19:14 11.4 7.9 79 1009.7 0.0 SW 0.0 0.8 4.9
19:15 11.4 7.9 79 1009.7 10.7 W 10.7 0.8 4.9
19:16 11.4 7.9 79 1009.7 0.0 SW 10.7 0.8 4.9
19:17 11.4 7.9 79 1009.7 0.0 NNW 10.7 0.8 4.9
19:18 11.4 7.9 79 1009.9 0.0 SW 10.7 0.0 4.9
19:19 11.4 7.9 79 1009.8 0.0 WNW 10.7 0.0 4.9
19:20 11.4 7.9 79 1009.8 0.0 WSW 10.7 0.0 4.9
19:21 11.4 7.9 79 1009.8 0.0 SW 10.7 0.0 4.9
19:22 11.4 7.9 79 1009.9 0.0 NW 10.7 0.0 4.9
19:23 11.4 7.9 79 1009.9 0.0 SW 10.7 0.0 4.9
19:24 11.3 7.8 79 1009.9 0.0 SW 10.7 0.0 4.9
19:25 11.3 7.8 79 1009.9 0.0 SW 10.7 0.0 4.9
19:26 11.3 7.8 79 1009.9 0.0 SW 0.0 0.0 4.9
19:27 11.3 7.8 79 1009.8 0.0 S 0.0 0.0 4.9
19:28 11.3 7.8 79 1009.9 0.0 SW 0.0 0.0 4.9
19:29 11.3 7.8 79 1009.8 0.0 WSW 0.0 0.0 4.9
19:30 11.3 7.8 79 1009.9 0.0 SW 0.0 0.0 4.9
19:31 11.3 7.8 79 1009.9 0.0 NW 0.0 0.0 4.9
19:32 11.2 7.7 79 1009.9 0.0 SW 0.0 0.0 4.9
19:33 11.2 7.7 79 1009.7 0.0 SW 0.0 0.0 4.9
19:34 11.2 7.7 79 1009.9 0.0 NW 0.0 0.0 4.9
19:35 11.2 7.7 79 1009.8 0.0 W 0.0 0.0 4.9
19:36 11.2 7.7 79 1009.9 0.0 NW 0.0 0.0 4.9
19:37 11.2 7.7 79 1009.8 0.0 W 0.0 0.0 4.9
19:38 11.2 7.7 79 1009.8 0.0 W 0.0 0.0 4.9
19:39 11.2 7.7 79 1009.8 0.0 S 0.0 0.0 4.9
19:40 11.2 7.7 79 1009.8 0.0 SW 0.0 0.0 4.9
19:41 11.2 7.9 80 1009.9 0.0 SW 0.0 0.0 4.9
19:42 11.2 7.9 80 1009.9 0.0 SW 0.0 0.0 4.9
19:43 11.2 7.7 79 1009.9 0.0 S 0.0 0.0 4.9
19:44 11.2 7.7 79 1009.9 0.0 SW 0.0 0.0 4.9
19:45 11.2 7.7 79 1009.9 0.0 NW 0.0 0.0 4.9
19:46 11.1 7.6 79 1010.0 0.0 SW 0.0 0.0 4.9
19:47 11.1 7.6 79 1009.9 0.0 WSW 0.0 0.0 4.9
19:48 11.1 7.6 79 1009.8 0.0 W 0.0 0.0 4.9
19:49 11.1 7.6 79 1009.8 0.0 S 0.0 0.0 4.9
19:50 11.1 7.6 79 1009.9 0.0 S 0.0 0.0 4.9
19:51 11.1 7.6 79 1009.8 0.0 SW 0.0 0.0 4.9
19:52 11.1 7.6 79 1009.8 0.0 SW 0.0 0.0 4.9
19:53 11.0 7.5 79 1010.0 0.0 W 0.0 0.0 4.9
19:54 11.0 7.5 79 1010.0 0.0 SW 0.0 0.0 4.9
19:55 11.0 7.5 79 1010.0 0.0 SW 0.0 0.0 4.9
19:56 10.9 7.4 79 1010.1 0.0 SW 0.0 0.0 4.9
19:57 10.9 7.4 79 1010.1 0.0 SW 0.0 0.0 4.9
19:58 10.9 7.4 79 1010.1 0.0 NW 0.0 0.0 4.9
19:59 10.9 7.4 79 1010.0 0.0 SW 0.0 0.0 4.9
20:00 10.8 7.3 79 1010.2 0.0 S 0.0 0.0 4.9
20:01 10.8 7.3 79 1010.0 0.0 W 0.0 0.0 4.9
20:02 10.8 7.3 79 1010.0 0.0 WNW 0.0 0.0 4.9
20:03 10.8 7.3 79 1010.1 0.0 WNW 0.0 0.0 4.9
20:04 10.8 7.3 79 1010.2 0.0 WNW 0.0 0.0 4.9
20:05 10.8 7.3 79 1010.1 0.0 WNW 0.0 0.0 4.9
20:06 10.8 7.3 79 1010.2 0.0 WNW 0.0 0.0 4.9
20:07 10.8 7.3 79 1010.2 0.0 WNW 0.0 0.0 4.9
20:08 10.7 7.2 79 1010.2 0.0 SW 0.0 0.0 4.9
20:09 10.7 7.4 80 1010.2 0.0 SW 0.0 0.0 4.9
20:10 10.7 7.2 79 1010.3 0.0 WSW 0.0 0.0 4.9
20:11 10.7 7.4 80 1010.2 0.0 NW 0.0 0.0 4.9
20:12 10.7 7.2 79 1010.5 0.0 W 0.0 0.0 4.9
20:13 10.7 7.2 79 1010.3 0.0 NW 0.0 0.0 4.9
20:14 10.7 7.2 79 1010.3 0.0 NNE 0.0 0.0 4.9
20:16 10.6 7.3 80 1010.4 0.0 SW 0.0 0.0 4.9
20:17 10.6 7.3 80 1010.3 0.0 WSW 0.0 0.0 4.9
20:18 10.6 7.3 80 1010.4 0.0 SW 0.0 0.0 4.9
20:19 10.6 7.3 80 1010.4 0.0 W 0.0 0.0 4.9
20:20 10.6 7.3 80 1010.4 0.0 SW 0.0 0.0 4.9
20:21 10.6 7.1 79 1010.3 0.0 W 0.0 0.0 4.9
20:22 10.6 7.1 79 1010.4 0.0 W 0.0 0.0 4.9
20:23 10.6 7.1 79 1010.2 0.0 W 0.0 0.0 4.9
20:24 10.6 7.1 79 1010.3 0.0 W 0.0 0.0 4.9
20:25 10.5 7.2 80 1010.3 0.0 W 0.0 0.0 4.9
20:26 10.5 7.2 80 1010.3 0.0 W 0.0 0.0 4.9
20:27 10.5 7.0 79 1010.3 0.0 W 0.0 0.0 4.9
20:28 10.5 7.2 80 1010.3 0.0 SW 0.0 0.0 4.9
20:29 10.5 7.2 80 1010.4 0.0 SW 0.0 0.0 4.9
20:30 10.5 7.2 80 1010.2 0.0 SW 0.0 0.0 4.9
20:31 10.5 7.2 80 1010.3 0.0 SW 0.0 0.0 4.9
20:32 10.5 7.2 80 1010.3 0.0 WSW 0.0 0.0 4.9
20:33 10.5 7.2 80 1010.4 0.0 SW 0.0 0.0 4.9
20:34 10.5 7.2 80 1010.3 0.0 WSW 0.0 0.0 4.9
20:36 10.5 7.2 80 1010.5 0.0 SW 0.0 0.0 4.9
20:37 10.5 7.2 80 1010.4 0.0 SW 0.0 0.0 4.9
20:38 10.5 7.2 80 1010.5 0.0 SW 0.0 0.0 4.9
20:40 10.5 7.2 80 1010.6 0.0 SE 0.0 0.0 4.9
20:41 10.5 7.2 80 1010.5 0.0 WSW 0.0 0.0 4.9
20:42 10.5 7.2 80 1010.5 0.0 W 0.0 0.0 4.9
20:43 10.5 7.2 80 1010.6 0.0 S 0.0 0.0 4.9
20:44 10.5 7.2 80 1010.7 0.0 S 0.0 0.0 4.9
20:45 10.5 7.2 80 1010.7 0.0 N 0.0 0.0 4.9
20:46 10.5 7.2 80 1010.6 0.0 SW 0.0 0.0 4.9
20:47 10.5 7.2 80 1010.8 0.0 SW 0.0 0.0 4.9
20:48 10.5 7.2 80 1010.6 0.0 W 0.0 0.0 4.9
20:49 10.5 7.2 80 1010.6 0.0 SW 0.0 0.0 4.9
20:50 10.5 7.2 80 1010.7 0.0 WSW 0.0 0.0 4.9
20:51 10.5 7.2 80 1010.6 0.0 NW 0.0 0.0 4.9
20:52 10.5 7.2 80 1010.5 0.0 W 0.0 0.0 4.9
20:53 10.5 7.2 80 1010.7 0.0 SW 0.0 0.0 4.9
20:54 10.5 7.2 80 1010.6 0.0 SW 0.0 0.0 4.9
20:55 10.5 7.2 80 1010.7 0.0 SW 0.0 0.0 4.9
20:56 10.5 7.2 80 1010.6 0.0 WSW 0.0 0.0 4.9
20:57 10.5 7.2 80 1010.7 0.0 WSW 0.0 0.0 4.9
20:58 10.6 7.5 81 1010.7 0.0 NW 0.0 0.0 4.9
20:59 10.6 7.5 81 1010.8 0.0 SW 0.0 0.0 4.9
21:00 10.6 7.5 81 1010.8 0.0 SW 0.0 0.0 4.9
21:02 10.6 7.5 81 1010.6 0.0 NW 0.0 0.0 4.9
21:03 10.6 7.5 81 1010.6 0.0 NW 0.0 0.0 4.9
21:04 10.6 7.5 81 1010.6 0.0 NW 0.0 0.0 4.9
21:05 10.6 7.5 81 1010.6 0.0 NW 0.0 0.0 4.9
21:06 10.6 7.5 81 1010.6 0.0 NW 0.0 0.0 4.9
21:07 10.6 7.5 81 1010.5 0.0 NW 0.0 0.0 4.9
21:08 10.8 7.7 81 1010.7 0.0 NW 0.0 0.0 4.9
21:09 10.8 7.7 81 1010.5 0.0 W 0.0 0.0 4.9
21:10 10.8 7.7 81 1010.6 0.0 SW 0.0 0.0 4.9
21:11 10.8 7.7 81 1010.7 0.0 WSW 0.0 0.0 4.9
21:12 10.9 7.8 81 1010.6 0.0 W 0.0 0.0 4.9
21:13 10.9 7.8 81 1010.7 0.0 N 0.0 0.0 4.9
21:14 10.9 7.8 81 1010.6 0.0 SW 0.0 0.0 4.9
21:15 10.9 7.8 81 1010.5 0.0 W 0.0 0.0 4.9
21:16 10.9 7.8 81 1010.6 0.0 WSW 0.0 0.0 4.9
21:17 10.9 7.8 81 1010.8 0.0 W 0.0 0.0 4.9
21:18 11.0 7.9 81 1010.7 0.0 W 0.0 0.0 4.9
21:19 11.0 7.9 81 1010.7 0.0 SW 0.0 0.0 4.9
21:20 11.0 8.0 82 1010.7 0.0 W 0.0 0.0 4.9
21:21 11.0 7.9 81 1010.7 0.0 W 0.0 0.0 4.9
21:22 11.0 8.0 82 1010.7 0.0 SW 0.0 0.0 4.9
21:23 11.0 8.0 82 1010.8 0.0 NW 0.0 0.0 4.9
21:24 11.1 8.1 82 1010.8 0.0 W 0.0 0.0 4.9
21:25 11.1 8.1 82 1010.8 0.0 W 0.0 0.0 4.9
21:26 11.1 8.1 82 1010.7 0.0 WSW 0.0 0.0 4.9
21:27 11.1 8.1 82 1010.9 0.0 WNW 0.0 0.0 4.9
21:28 11.1 8.1 82 1010.7 0.0 SW 0.0 0.0 4.9
21:30 11.2 8.2 82 1010.8 0.0 WSW 0.0 0.0 4.9
21:31 11.2 8.2 82 1010.9 0.0 SW 0.0 0.0 4.9
21:32 11.3 8.3 82 1011.0 0.0 SW 0.0 0.0 4.9
21:33 11.3 8.3 82 1010.8 0.0 W 0.0 0.0 4.9
21:34 11.3 8.3 82 1010.8 0.0 SW 0.0 0.0 4.9
21:35 11.3 8.3 82 1010.7 0.0 W 0.0 0.0 4.9
21:36 11.3 8.3 82 1010.9 0.7 W 0.7 0.0 4.9
21:37 11.3 8.3 82 1010.8 0.7 W 0.7 0.0 4.9
21:38 11.3 8.3 82 1010.8 0.0 W 0.7 0.0 4.9
21:39 11.3 8.3 82 1010.8 0.0 NW 0.7 0.0 4.9
21:40 11.3 8.3 82 1010.9 0.0 W 0.7 0.0 4.9
21:41 11.3 8.3 82 1010.9 0.0 SW 0.7 0.0 4.9
21:42 11.3 8.3 82 1010.8 0.0 NNW 0.7 0.0 4.9
21:43 11.3 8.2 81 1010.8 0.0 SW 0.7 0.0 4.9
21:44 11.3 8.2 81 1011.0 0.0 NW 0.7 0.0 4.9
21:45 11.3 8.2 81 1010.8 0.0 SW 0.7 0.0 4.9
21:46 11.2 8.1 81 1010.9 0.0 W 0.7 0.0 4.9
21:47 11.2 8.1 81 1010.8 0.0 W 0.7 0.0 4.9
21:48 11.2 8.1 81 1011.0 0.0 W 0.0 0.0 4.9
21:49 11.1 8.0 81 1011.0 0.0 W 0.0 0.0 4.9
21:51 11.1 8.0 81 1011.1 0.0 SW 0.0 0.0 4.9
21:52 11.1 8.0 81 1010.8 0.0 SW 0.0 0.0 4.9
21:53 11.1 8.0 81 1011.2 0.0 N 0.0 0.0 4.9
21:54 11.1 8.0 81 1011.0 0.0 NW 0.0 0.0 4.9
21:55 11.0 7.9 81 1011.0 0.0 SW 0.0 0.0 4.9
21:56 11.0 7.9 81 1011.1 0.0 SW 0.0 0.0 4.9
21:57 11.0 7.9 81 1011.0 0.0 WSW 0.0 0.0 4.9
21:58 11.0 7.9 81 1011.0 0.0 S 0.0 0.0 4.9
21:59 11.0 7.9 81 1011.0 0.0 W 0.0 0.0 4.9
22:00 11.0 7.9 81 1010.9 0.0 SW 0.0 0.0 4.9
22:01 11.0 7.9 81 1011.0 0.0 NW 0.0 0.0 4.9
22:02 11.0 7.9 81 1010.8 0.0 NW 0.0 0.0 4.9
22:03 11.0 7.9 81 1010.7 0.0 SW 0.0 0.0 4.9
22:04 11.0 7.9 81 1010.8 0.0 W 0.0 0.0 4.9
22:05 11.0 7.9 81 1010.9 0.0 W 0.0 0.0 4.9
22:06 11.0 7.9 81 1010.9 0.0 SW 0.0 0.0 4.9
22:07 11.0 7.9 81 1011.1 0.0 WNW 0.0 0.0 4.9
22:08 11.0 7.9 81 1011.1 0.0 SW 0.0 0.0 4.9
22:09 11.0 7.9 81 1011.1 0.0 W 0.0 0.8 4.9
22:10 11.0 7.9 81 1011.1 0.0 W 0.0 1.5 5.0
22:11 11.0 7.9 81 1011.0 0.7 NW 0.7 2.3 5.0
22:14 11.0 7.9 81 1011.3 0.0 SW 0.7 2.3 5.1
22:15 11.0 7.9 81 1011.2 0.0 W 0.7 1.5 5.1
22:16 11.0 7.9 81 1011.2 0.0 W 0.7 0.8 5.1
22:17 11.0 7.9 81 1011.2 0.0 W 0.7 0.8 5.1
22:18 11.0 7.9 81 1011.4 0.0 W 0.7 0.0 5.1
22:19 11.0 8.0 82 1011.2 0.0 W 0.7 0.0 5.1
22:20 11.0 8.0 82 1011.1 0.0 SW 0.7 0.0 5.1
22:21 11.0 8.0 82 1011.1 0.0 SW 0.7 0.0 5.1
22:22 11.0 8.0 82 1011.1 0.0 W 0.0 0.0 5.1
22:23 11.0 8.0 82 1011.2 0.0 SW 0.0 0.0 5.1
22:24 11.0 8.0 82 1011.1 0.0 W 0.0 0.0 5.1
22:25 11.0 8.0 82 1011.2 0.0 W 0.0 0.0 5.1
22:27 11.0 8.0 82 1011.1 0.0 W 0.0 0.0 5.1
22:28 11.1 8.1 82 1011.1 0.0 SW 0.0 0.0 5.1
22:29 11.1 8.1 82 1011.2 0.0 WNW 0.0 0.0 5.1
22:30 11.1 8.1 82 1011.1 0.0 W 0.0 0.0 5.1
22:31 11.1 8.1 82 1011.1 0.0 SW 0.0 0.0 5.1
22:32 11.1 8.1 82 1011.1 0.0 NW 0.0 0.0 5.1
22:33 11.1 8.1 82 1011.1 0.0 W 0.0 0.0 5.1
22:34 11.2 8.2 82 1011.2 0.0 SW 0.0 0.0 5.1
22:35 11.1 8.1 82 1011.3 0.0 W 0.0 0.0 5.1
22:36 11.1 8.1 82 1011.3 0.0 NW 0.0 0.0 5.1
22:37 11.2 8.2 82 1011.3 0.0 W 0.0 0.0 5.1
22:38 11.2 8.2 82 1011.2 0.0 WSW 0.0 0.0 5.1
22:39 11.2 8.2 82 1011.3 0.0 SW 0.0 0.0 5.1
22:40 11.2 8.2 82 1011.2 0.0 SW 0.0 0.0 5.1
22:41 11.2 8.2 82 1011.4 0.0 NW 0.0 0.0 5.1
22:42 11.2 8.2 82 1011.5 0.7 N 0.7 0.0 5.1
22:43 11.2 8.2 82 1011.5 0.0 S 0.7 0.0 5.1
22:44 11.2 8.2 82 1011.5 0.0 NW 0.7 0.0 5.1
22:45 11.2 8.2 82 1011.4 0.0 WNW 0.7 0.0 5.1
22:46 11.3 8.3 82 1011.3 0.0 SW 0.7 0.0 5.1
22:47 11.3 8.3 82 1011.4 0.0 W 0.7 0.0 5.1
22:49 11.3 8.3 82 1011.4 0.0 W 0.7 0.0 5.1
22:50 11.3 8.3 82 1011.4 0.0 WSW 0.7 0.0 5.1
22:51 11.3 8.3 82 1011.4 0.0 W 0.7 0.0 5.1
22:52 11.3 8.3 82 1011.5 0.0 SW 0.0 0.0 5.1
22:53 11.3 8.3 82 1011.5 0.0 SW 0.0 0.0 5.1
22:54 11.3 8.3 82 1011.5 0.0 S 0.0 0.0 5.1
22:55 11.3 8.3 82 1011.4 0.0 W 0.0 0.0 5.1
22:56 11.3 8.3 82 1011.5 0.0 W 0.0 0.0 5.1
22:57 11.3 8.3 82 1011.5 0.0 NW 0.0 0.0 5.1
22:58 11.3 8.3 82 1011.5 0.0 NW 0.0 0.0 5.1
22:59 11.3 8.3 82 1011.6 0.0 W 0.0 0.0 5.1
23:00 11.3 8.3 82 1011.6 0.0 SW 0.0 0.0 5.1
23:01 11.3 8.3 82 1011.6 0.0 W 0.0 0.0 5.1
23:02 11.3 8.3 82 1011.5 0.0 SW 0.0 0.0 5.1
23:03 11.2 8.2 82 1011.6 0.0 SW 0.0 0.0 5.1
23:04 11.2 8.2 82 1011.5 0.0 SW 0.0 0.0 5.1
23:05 11.2 8.2 82 1011.6 0.0 SW 0.0 0.0 5.1
23:06 11.2 8.2 82 1011.6 0.0 SW 0.0 0.0 5.1
23:07 11.2 8.2 82 1011.8 0.0 SW 0.0 0.0 5.1
23:08 11.2 8.2 82 1011.7 0.0 W 0.0 0.0 5.1
23:09 11.2 8.1 81 1011.8 0.0 W 0.0 0.0 5.1
23:10 11.2 8.1 81 1011.7 0.0 WNW 0.0 0.0 5.1
23:11 11.2 8.1 81 1011.7 0.0 SW 0.0 0.0 5.1
23:12 11.2 8.1 81 1011.8 0.0 SW 0.0 0.0 5.1
23:13 11.2 8.1 81 1011.7 0.0 W 0.0 0.0 5.1
23:14 11.2 8.1 81 1011.6 0.0 W 0.0 0.0 5.1
23:15 11.2 8.1 81 1011.7 0.0 W 0.0 0.0 5.1
23:16 11.2 8.1 81 1011.8 0.0 WSW 0.0 0.0 5.1
23:17 11.2 8.1 81 1011.7 0.0 W 0.0 0.0 5.1
23:18 11.2 8.1 81 1011.8 0.0 SW 0.0 0.0 5.1
23:19 11.2 8.1 81 1011.5 0.0 S 0.0 0.0 5.1
23:20 11.2 8.1 81 1011.8 0.0 W 0.0 0.0 5.1
23:21 11.2 8.1 81 1011.9 0.0 SW 0.0 0.0 5.1
23:22 11.2 8.1 81 1011.8 0.0 SW 0.0 0.0 5.1
23:23 11.2 8.1 81 1011.7 0.0 W 0.0 0.0 5.1
23:24 11.1 8.0 81 1011.9 0.0 WNW 0.0 0.0 5.1
23:25 11.1 8.0 81 1011.8 0.0 SW 0.0 0.0 5.1
23:26 11.2 8.1 81 1011.8 0.0 W 0.0 0.0 5.1
23:27 11.2 8.1 81 1011.8 0.0 NW 0.0 0.0 5.1
23:28 11.2 8.1 81 1011.9 0.0 SW 0.0 0.0 5.1
23:29 11.2 8.1 81 1011.8 0.0 W 0.0 0.0 5.1
23:30 11.2 8.1 81 1011.8 0.0 WNW 0.0 0.0 5.1
23:31 11.2 8.1 81 1011.7 0.0 W 0.0 0.0 5.1
23:32 11.2 8.1 81 1011.7 0.0 W 0.0 0.0 5.1
23:33 11.2 7.9 80 1011.7 0.0 W 0.0 0.0 5.1
23:34 11.2 7.9 80 1011.9 0.0 NW 0.0 0.0 5.1
23:35 11.1 8.0 81 1011.7 0.0 SW 0.0 0.0 5.1
23:36 11.2 7.9 80 1011.9 0.0 W 0.0 0.0 5.1
23:37 11.2 8.1 81 1011.8 0.0 SW 0.0 0.0 5.1
23:38 11.2 8.1 81 1011.8 0.0 SW 0.0 0.0 5.1
23:39 11.2 7.9 80 1011.8 0.0 W 0.0 0.0 5.1
23:40 11.2 8.1 81 1011.9 0.0 SW 0.0 0.0 5.1
23:41 11.2 8.1 81 1011.7 0.0 WSW 0.0 0.0 5.1
23:43 11.2 8.1 81 1011.7 0.0 SW 0.0 0.0 5.1
23:44 11.2 8.1 81 1012.0 0.0 NW 0.0 0.0 5.1
23:45 11.2 8.1 81 1011.7 0.0 NNW 0.0 0.0 5.1
23:46 11.2 8.1 81 1011.7 0.0 W 0.0 0.0 5.1
23:47 11.3 8.2 81 1011.8 0.0 NW 0.0 0.0 5.1
23:48 11.3 8.2 81 1011.8 0.0 W 0.0 0.0 5.1
23:49 11.3 8.2 81 1011.8 0.7 W 0.7 0.0 5.1
23:50 11.3 8.2 81 1012.0 0.0 W 0.7 0.0 5.1
23:51 11.3 8.2 81 1011.9 0.0 W 0.7 0.0 5.1
23:52 11.3 8.2 81 1011.9 0.0 NW 0.7 0.0 5.1
23:53 11.3 8.2 81 1011.9 0.0 W 0.7 0.0 5.1
23:54 11.3 8.2 81 1012.0 0.0 WNW 0.7 0.0 5.1
23:55 11.3 8.2 81 1012.1 0.0 SW 0.7 0.0 5.1
23:56 11.4 8.3 81 1011.8 0.0 SW 0.7 0.0 5.1
23:57 11.4 8.3 81 1011.8 0.0 SW 0.7 0.0 5.1
23:58 11.4 8.3 81 1011.8 0.0 SW 0.7 0.0 5.1
23:59 11.4 8.3 81 1012.0 0.0 NW 0.7 0.0 5.1

UK - WEATHER STATION TOPSITES - UK World Weather Websites

This is a private weather station, never base important decisions or events on data from this weather station. Although every effort has been made to make the data as accurate as possible it does not meet MetOffice standards. It is proved as a guide of local weather conditions. We accept no liability for any loss which may arise from use of the data.

Copyright © Carnkie Weather 2009 - 2019.